Time,TemperatureF,DewpointF,PressureIn,WindDirection,WindDirectionDegrees,WindSpeedMPH,WindSpeedGustMPH,Humidity,HourlyPrecipIn,Conditions,Clouds,dailyrainin,SoftwareType,DateUTC
2013-06-14 00:01:00,52.9,51.8,29.58,NE,40,2.0,4.0,96,0.00,,,0.00,Wunderground v.1.15,2013-06-14 04:01:00,
2013-06-14 00:02:00,52.8,51.7,29.58,NE,36,2.0,4.0,96,0.00,,,0.00,Wunderground v.1.15,2013-06-14 04:02:00,
2013-06-14 00:03:00,52.8,51.7,29.58,North,5,2.0,4.0,96,0.00,,,0.00,Wunderground v.1.15,2013-06-14 04:03:00,
2013-06-14 00:04:00,52.7,51.6,29.58,North,5,3.0,4.0,96,0.00,,,0.00,Wunderground v.1.15,2013-06-14 04:04:00,
2013-06-14 00:08:00,52.6,51.5,29.58,NNE,23,3.0,7.0,96,0.00,,,0.00,Wunderground v.1.15,2013-06-14 04:08:00,
2013-06-14 00:09:00,52.6,51.5,29.58,North,10,3.0,7.0,96,0.00,,,0.00,Wunderground v.1.15,2013-06-14 04:09:00,
2013-06-14 00:11:00,52.6,51.5,29.58,NNE,15,3.0,5.0,96,0.00,,,0.00,Wunderground v.1.15,2013-06-14 04:11:00,
2013-06-14 00:14:00,52.5,51.4,29.58,NNE,17,3.0,5.0,96,0.00,,,0.00,Wunderground v.1.15,2013-06-14 04:14:00,
2013-06-14 00:15:00,52.5,51.4,29.58,NNE,17,3.0,5.0,96,0.00,,,0.00,Wunderground v.1.15,2013-06-14 04:15:00,
2013-06-14 00:18:00,52.5,51.4,29.58,North,9,2.0,5.0,96,0.00,,,0.00,Wunderground v.1.15,2013-06-14 04:18:00,
2013-06-14 00:19:00,52.5,51.4,29.58,North,9,2.0,5.0,96,0.00,,,0.00,Wunderground v.1.15,2013-06-14 04:19:00,
2013-06-14 00:22:00,52.6,51.5,29.58,NNE,25,1.0,4.0,96,0.00,,,0.00,Wunderground v.1.15,2013-06-14 04:22:00,
2013-06-14 00:24:00,52.6,51.5,29.58,NNE,25,1.0,4.0,96,0.00,,,0.00,Wunderground v.1.15,2013-06-14 04:24:00,
2013-06-14 00:25:00,52.6,51.5,29.58,NNE,25,1.0,4.0,96,0.00,,,0.00,Wunderground v.1.15,2013-06-14 04:25:00,
2013-06-14 00:27:00,52.6,51.5,29.58,NNE,25,1.0,4.0,96,0.00,,,0.00,Wunderground v.1.15,2013-06-14 04:27:00,
2013-06-14 00:30:00,52.6,51.5,29.58,NNE,19,1.0,1.0,96,0.00,,,0.00,Wunderground v.1.15,2013-06-14 04:30:00,
2013-06-14 00:31:00,52.7,51.6,29.58,NNE,19,1.0,4.0,96,0.00,,,0.00,Wunderground v.1.15,2013-06-14 04:31:00,
2013-06-14 00:32:00,52.6,51.5,29.58,NNE,19,1.0,4.0,96,0.00,,,0.00,Wunderground v.1.15,2013-06-14 04:32:00,
2013-06-14 00:33:00,52.6,51.5,29.58,NNE,22,1.0,4.0,96,0.00,,,0.00,Wunderground v.1.15,2013-06-14 04:33:00,
2013-06-14 00:34:00,52.7,51.6,29.58,NNE,22,1.0,4.0,96,0.00,,,0.00,Wunderground v.1.15,2013-06-14 04:34:00,
2013-06-14 00:37:00,52.6,51.5,29.58,NE,38,1.0,4.0,96,0.00,,,0.00,Wunderground v.1.15,2013-06-14 04:37:00,
2013-06-14 00:38:00,52.6,51.5,29.58,ENE,63,1.0,4.0,96,0.00,,,0.00,Wunderground v.1.15,2013-06-14 04:38:00,
2013-06-14 00:42:00,52.6,51.5,29.58,ENE,57,0.0,4.0,96,0.00,,,0.00,Wunderground v.1.15,2013-06-14 04:42:00,
2013-06-14 00:44:00,52.6,51.5,29.58,ENE,57,0.0,4.0,96,0.00,,,0.00,Wunderground v.1.15,2013-06-14 04:44:00,
2013-06-14 00:45:00,52.6,51.5,29.58,ENE,57,0.0,4.0,96,0.00,,,0.00,Wunderground v.1.15,2013-06-14 04:45:00,
2013-06-14 00:49:00,52.6,51.5,29.58,ENE,57,0.0,4.0,96,0.00,,,0.00,Wunderground v.1.15,2013-06-14 04:49:00,
2013-06-14 00:50:00,52.6,51.8,29.58,ENE,57,0.0,4.0,97,0.00,,,0.00,Wunderground v.1.15,2013-06-14 04:50:00,
2013-06-14 00:55:00,52.6,51.8,29.58,ENE,57,0.0,4.0,97,0.00,,,0.00,Wunderground v.1.15,2013-06-14 04:55:00,
2013-06-14 00:57:00,52.6,51.8,29.58,ENE,57,0.0,4.0,97,0.00,,,0.00,Wunderground v.1.15,2013-06-14 04:57:00,
2013-06-14 00:58:00,52.6,51.8,29.58,ENE,57,0.0,4.0,97,0.00,,,0.00,Wunderground v.1.15,2013-06-14 04:58:00,
2013-06-14 00:59:00,52.6,51.8,29.58,ENE,57,0.0,4.0,97,0.00,,,0.00,Wunderground v.1.15,2013-06-14 04:59:00,
2013-06-14 01:03:00,52.6,51.8,29.58,ENE,57,0.0,4.0,97,0.00,,,0.00,Wunderground v.1.15,2013-06-14 05:03:00,
2013-06-14 01:04:00,52.6,51.8,29.58,ENE,57,0.0,4.0,97,0.00,,,0.00,Wunderground v.1.15,2013-06-14 05:04:00,
2013-06-14 01:07:00,52.6,51.8,29.58,ENE,57,0.0,4.0,97,0.00,,,0.00,Wunderground v.1.15,2013-06-14 05:07:00,
2013-06-14 01:08:00,52.7,51.9,29.58,ENE,57,0.0,4.0,97,0.00,,,0.00,Wunderground v.1.15,2013-06-14 05:08:00,
2013-06-14 01:09:00,52.6,51.8,29.58,ENE,57,0.0,4.0,97,0.00,,,0.00,Wunderground v.1.15,2013-06-14 05:09:00,
2013-06-14 01:10:00,52.6,51.8,29.58,ENE,57,0.0,4.0,97,0.00,,,0.00,Wunderground v.1.15,2013-06-14 05:10:00,
2013-06-14 01:12:00,52.6,51.8,29.58,ENE,57,1.0,4.0,97,0.00,,,0.00,Wunderground v.1.15,2013-06-14 05:12:00,
2013-06-14 01:15:00,52.6,51.8,29.58,NE,42,1.0,4.0,97,0.00,,,0.00,Wunderground v.1.15,2013-06-14 05:15:00,
2013-06-14 01:16:00,52.6,51.8,29.57,NNE,13,1.0,5.0,97,0.00,,,0.00,Wunderground v.1.15,2013-06-14 05:16:00,
2013-06-14 01:18:00,52.5,51.7,29.57,North,11,2.0,5.0,97,0.00,,,0.00,Wunderground v.1.15,2013-06-14 05:18:00,
2013-06-14 01:22:00,52.5,51.7,29.57,NNE,17,2.0,4.0,97,0.00,,,0.00,Wunderground v.1.15,2013-06-14 05:22:00,
2013-06-14 01:23:00,52.5,51.7,29.57,NNE,20,2.0,4.0,97,0.00,,,0.00,Wunderground v.1.15,2013-06-14 05:23:00,
2013-06-14 01:28:00,52.4,51.6,29.57,North,9,2.0,5.0,97,0.00,,,0.00,Wunderground v.1.15,2013-06-14 05:28:00,
2013-06-14 01:29:00,52.4,51.6,29.57,NNW,342,2.0,5.0,97,0.00,,,0.00,Wunderground v.1.15,2013-06-14 05:29:00,
2013-06-14 01:34:00,52.4,51.6,29.57,NNE,15,3.0,5.0,97,0.00,,,0.00,Wunderground v.1.15,2013-06-14 05:34:00,
2013-06-14 01:35:00,52.4,51.6,29.57,NNE,14,3.0,5.0,97,0.00,,,0.00,Wunderground v.1.15,2013-06-14 05:35:00,
2013-06-14 01:36:00,52.4,51.6,29.57,North,360,3.0,6.0,97,0.00,,,0.00,Wunderground v.1.15,2013-06-14 05:36:00,
2013-06-14 01:40:00,52.3,51.5,29.57,North,11,3.0,3.0,97,0.00,,,0.00,Wunderground v.1.15,2013-06-14 05:40:00,
2013-06-14 01:41:00,52.3,51.5,29.57,NNE,12,3.0,4.0,97,0.00,,,0.00,Wunderground v.1.15,2013-06-14 05:41:00,
2013-06-14 01:45:00,52.3,51.5,29.57,NNE,28,3.0,5.0,97,0.00,,,0.00,Wunderground v.1.15,2013-06-14 05:45:00,
2013-06-14 01:49:00,52.3,51.5,29.57,North,360,3.0,5.0,97,0.00,,,0.00,Wunderground v.1.15,2013-06-14 05:49:00,
2013-06-14 01:50:00,52.3,51.5,29.57,North,5,3.0,4.0,97,0.00,,,0.00,Wunderground v.1.15,2013-06-14 05:50:00,
2013-06-14 01:52:00,52.2,51.4,29.57,North,355,4.0,4.0,97,0.00,,,0.00,Wunderground v.1.15,2013-06-14 05:52:00,
2013-06-14 01:54:00,52.2,51.4,29.57,North,11,4.0,4.0,97,0.00,,,0.00,Wunderground v.1.15,2013-06-14 05:54:00,
2013-06-14 01:56:00,52.2,51.4,29.57,NE,37,4.0,7.0,97,0.00,,,0.00,Wunderground v.1.15,2013-06-14 05:56:00,
2013-06-14 01:57:00,52.1,51.3,29.57,North,11,4.0,7.0,97,0.00,,,0.00,Wunderground v.1.15,2013-06-14 05:57:00,
2013-06-14 01:59:00,52.1,51.3,29.57,NE,39,4.0,7.0,97,0.00,,,0.00,Wunderground v.1.15,2013-06-14 05:59:00,
2013-06-14 02:01:00,52.1,51.3,29.57,North,9,4.0,8.0,97,0.00,,,0.00,Wunderground v.1.15,2013-06-14 06:01:00,
2013-06-14 02:03:00,52.1,51.3,29.57,North,9,4.0,8.0,97,0.00,,,0.00,Wunderground v.1.15,2013-06-14 06:03:00,
2013-06-14 02:04:00,52.1,51.3,29.57,NNE,25,4.0,8.0,97,0.00,,,0.00,Wunderground v.1.15,2013-06-14 06:04:00,
2013-06-14 02:06:00,52.1,51.3,29.57,North,360,4.0,8.0,97,0.00,,,0.00,Wunderground v.1.15,2013-06-14 06:06:00,
2013-06-14 02:08:00,52.1,51.3,29.57,NNE,21,4.0,8.0,97,0.00,,,0.00,Wunderground v.1.15,2013-06-14 06:08:00,
2013-06-14 02:09:00,52.0,51.2,29.57,NNW,340,4.0,8.0,97,0.00,,,0.00,Wunderground v.1.15,2013-06-14 06:09:00,
2013-06-14 02:10:00,52.1,51.3,29.57,NNE,30,4.0,4.0,97,0.00,,,0.00,Wunderground v.1.15,2013-06-14 06:10:00,
2013-06-14 02:11:00,52.0,51.2,29.57,North,5,4.0,8.0,97,0.00,,,0.00,Wunderground v.1.15,2013-06-14 06:11:00,
2013-06-14 02:14:00,52.0,51.2,29.57,NNE,19,4.0,8.0,97,0.00,,,0.00,Wunderground v.1.15,2013-06-14 06:14:00,
2013-06-14 02:16:00,52.0,51.2,29.57,NNE,23,4.0,8.0,97,0.00,,,0.00,Wunderground v.1.15,2013-06-14 06:16:00,
2013-06-14 02:17:00,52.0,51.2,29.57,NNE,17,3.0,8.0,97,0.00,,,0.00,Wunderground v.1.15,2013-06-14 06:17:00,
2013-06-14 02:18:00,52.0,51.2,29.57,NNE,16,3.0,8.0,97,0.00,,,0.00,Wunderground v.1.15,2013-06-14 06:18:00,
2013-06-14 02:21:00,52.0,51.2,29.57,NNE,26,3.0,8.0,97,0.00,,,0.00,Wunderground v.1.15,2013-06-14 06:21:00,
2013-06-14 02:23:00,52.0,50.9,29.57,North,5,3.0,8.0,96,0.00,,,0.00,Wunderground v.1.15,2013-06-14 06:23:00,
2013-06-14 02:26:00,51.9,50.8,29.57,NNE,28,3.0,8.0,96,0.00,,,0.00,Wunderground v.1.15,2013-06-14 06:26:00,
2013-06-14 02:28:00,51.8,50.7,29.57,North,11,4.0,8.0,96,0.00,,,0.00,Wunderground v.1.15,2013-06-14 06:28:00,
2013-06-14 02:29:00,51.8,50.7,29.57,North,360,4.0,8.0,96,0.00,,,0.00,Wunderground v.1.15,2013-06-14 06:29:00,
2013-06-14 02:31:00,51.8,50.7,29.57,North,360,4.0,8.0,96,0.00,,,0.00,Wunderground v.1.15,2013-06-14 06:31:00,
2013-06-14 02:35:00,51.7,50.6,29.57,NNE,22,4.0,8.0,96,0.00,,,0.00,Wunderground v.1.15,2013-06-14 06:35:00,
2013-06-14 02:36:00,51.7,50.6,29.57,North,355,4.0,8.0,96,0.00,,,0.00,Wunderground v.1.15,2013-06-14 06:36:00,
2013-06-14 02:40:00,51.7,50.6,29.57,North,350,3.0,3.0,96,0.00,,,0.00,Wunderground v.1.15,2013-06-14 06:40:00,
2013-06-14 02:42:00,51.7,50.6,29.57,NNE,24,3.0,8.0,96,0.00,,,0.00,Wunderground v.1.15,2013-06-14 06:42:00,
2013-06-14 02:45:00,51.6,50.5,29.57,NNE,27,3.0,8.0,96,0.00,,,0.00,Wunderground v.1.15,2013-06-14 06:45:00,
2013-06-14 02:46:00,51.7,50.6,29.57,NNE,27,3.0,8.0,96,0.00,,,0.00,Wunderground v.1.15,2013-06-14 06:46:00,
2013-06-14 02:48:00,51.7,50.6,29.57,NNE,21,2.0,8.0,96,0.00,,,0.00,Wunderground v.1.15,2013-06-14 06:48:00,
2013-06-14 02:51:00,51.6,50.5,29.58,NNE,31,3.0,8.0,96,0.00,,,0.00,Wunderground v.1.15,2013-06-14 06:51:00,
2013-06-14 02:52:00,51.6,50.5,29.58,NE,34,3.0,8.0,96,0.00,,,0.00,Wunderground v.1.15,2013-06-14 06:52:00,
2013-06-14 02:54:00,51.6,50.5,29.58,North,5,3.0,8.0,96,0.00,,,0.00,Wunderground v.1.15,2013-06-14 06:54:00,
2013-06-14 02:57:00,51.6,50.5,29.58,North,5,3.0,8.0,96,0.00,,,0.00,Wunderground v.1.15,2013-06-14 06:57:00,
2013-06-14 02:59:00,51.6,50.5,29.58,NNE,27,3.0,8.0,96,0.00,,,0.00,Wunderground v.1.15,2013-06-14 06:59:00,
2013-06-14 03:01:00,51.6,50.5,29.57,NNE,26,3.0,8.0,96,0.00,,,0.00,Wunderground v.1.15,2013-06-14 07:01:00,
2013-06-14 03:02:00,51.6,50.5,29.57,NNE,26,3.0,8.0,96,0.00,,,0.00,Wunderground v.1.15,2013-06-14 07:02:00,
2013-06-14 03:04:00,51.7,50.6,29.57,NNE,15,2.0,8.0,96,0.00,,,0.00,Wunderground v.1.15,2013-06-14 07:04:00,
2013-06-14 03:05:00,51.7,50.6,29.57,NNE,15,2.0,8.0,96,0.00,,,0.00,Wunderground v.1.15,2013-06-14 07:05:00,
2013-06-14 03:09:00,51.7,50.6,29.56,North,360,2.0,8.0,96,0.00,,,0.00,Wunderground v.1.15,2013-06-14 07:09:00,
2013-06-14 03:10:00,51.7,50.6,29.56,North,5,2.0,2.0,96,0.00,,,0.00,Wunderground v.1.15,2013-06-14 07:10:00,
2013-06-14 03:11:00,51.7,50.6,29.56,NNE,12,1.0,8.0,96,0.00,,,0.00,Wunderground v.1.15,2013-06-14 07:11:00,
2013-06-14 03:16:00,51.7,50.6,29.56,North,9,1.0,8.0,96,0.00,,,0.00,Wunderground v.1.15,2013-06-14 07:16:00,
2013-06-14 03:17:00,51.7,50.6,29.56,NNE,15,1.0,8.0,96,0.00,,,0.00,Wunderground v.1.15,2013-06-14 07:17:00,
2013-06-14 03:18:00,51.7,50.6,29.57,NNE,15,1.0,8.0,96,0.00,,,0.00,Wunderground v.1.15,2013-06-14 07:18:00,
2013-06-14 03:19:00,51.7,50.6,29.57,NNE,15,1.0,8.0,96,0.00,,,0.00,Wunderground v.1.15,2013-06-14 07:19:00,
2013-06-14 03:21:00,51.7,50.6,29.57,NNE,28,1.0,8.0,96,0.00,,,0.00,Wunderground v.1.15,2013-06-14 07:21:00,
2013-06-14 03:25:00,51.7,50.6,29.57,NNE,21,1.0,8.0,96,0.00,,,0.00,Wunderground v.1.15,2013-06-14 07:25:00,
2013-06-14 03:26:00,51.7,50.6,29.57,NNE,26,1.0,8.0,96,0.00,,,0.00,Wunderground v.1.15,2013-06-14 07:26:00,
2013-06-14 03:31:00,51.7,50.6,29.57,North,355,2.0,8.0,96,0.00,,,0.00,Wunderground v.1.15,2013-06-14 07:31:00,
2013-06-14 03:32:00,51.6,50.5,29.57,NNW,346,2.0,8.0,96,0.00,,,0.00,Wunderground v.1.15,2013-06-14 07:32:00,
2013-06-14 03:38:00,51.6,50.5,29.57,NNE,30,2.0,8.0,96,0.00,,,0.00,Wunderground v.1.15,2013-06-14 07:38:00,
2013-06-14 03:40:00,51.6,50.5,29.57,NNE,28,2.0,8.0,96,0.00,,,0.00,Wunderground v.1.15,2013-06-14 07:40:00,
2013-06-14 03:41:00,51.6,50.5,29.57,NNE,33,2.0,8.0,96,0.00,,,0.00,Wunderground v.1.15,2013-06-14 07:41:00,
2013-06-14 03:43:00,51.6,50.5,29.57,NNE,17,2.0,8.0,96,0.00,,,0.00,Wunderground v.1.15,2013-06-14 07:43:00,
2013-06-14 03:45:00,51.6,50.5,29.57,NNE,12,2.0,8.0,96,0.00,,,0.00,Wunderground v.1.15,2013-06-14 07:45:00,
2013-06-14 03:49:00,51.7,50.6,29.57,NNE,22,2.0,8.0,96,0.00,,,0.00,Wunderground v.1.15,2013-06-14 07:49:00,
2013-06-14 03:51:00,51.7,50.6,29.57,NNE,22,2.0,8.0,96,0.00,,,0.00,Wunderground v.1.15,2013-06-14 07:51:00,
2013-06-14 03:52:00,51.7,50.6,29.57,NNE,22,2.0,8.0,96,0.00,,,0.00,Wunderground v.1.15,2013-06-14 07:52:00,
2013-06-14 03:55:00,51.7,50.6,29.58,NNE,22,1.0,8.0,96,0.00,,,0.00,Wunderground v.1.15,2013-06-14 07:55:00,
2013-06-14 03:57:00,51.7,50.6,29.58,NNE,22,1.0,8.0,96,0.00,,,0.00,Wunderground v.1.15,2013-06-14 07:57:00,
2013-06-14 03:58:00,51.7,50.6,29.58,NNE,22,1.0,8.0,96,0.00,,,0.00,Wunderground v.1.15,2013-06-14 07:58:00,
2013-06-14 03:59:00,51.7,50.6,29.58,NNE,22,0.0,8.0,96,0.00,,,0.00,Wunderground v.1.15,2013-06-14 07:59:00,
2013-06-14 04:02:00,51.8,50.7,29.58,NNE,22,0.0,9.0,96,0.00,,,0.00,Wunderground v.1.15,2013-06-14 08:02:00,
2013-06-14 04:07:00,51.8,51.0,29.58,NNE,19,1.0,9.0,97,0.00,,,0.00,Wunderground v.1.15,2013-06-14 08:07:00,
2013-06-14 04:08:00,51.8,51.0,29.58,NNE,19,0.0,9.0,97,0.00,,,0.00,Wunderground v.1.15,2013-06-14 08:08:00,
2013-06-14 04:11:00,51.8,51.0,29.58,NNE,24,0.0,9.0,97,0.00,,,0.00,Wunderground v.1.15,2013-06-14 08:11:00,
2013-06-14 04:13:00,51.8,51.0,29.58,NNE,24,1.0,9.0,97,0.00,,,0.00,Wunderground v.1.15,2013-06-14 08:13:00,
2013-06-14 04:14:00,51.8,51.0,29.58,NNE,24,1.0,9.0,97,0.00,,,0.00,Wunderground v.1.15,2013-06-14 08:14:00,
2013-06-14 04:17:00,51.8,51.0,29.59,NNE,24,1.0,9.0,97,0.00,,,0.00,Wunderground v.1.15,2013-06-14 08:17:00,
2013-06-14 04:18:00,51.8,51.0,29.59,NNE,24,1.0,9.0,97,0.00,,,0.00,Wunderground v.1.15,2013-06-14 08:18:00,
2013-06-14 04:19:00,51.9,51.1,29.59,NNE,24,1.0,9.0,97,0.00,,,0.00,Wunderground v.1.15,2013-06-14 08:19:00,
2013-06-14 04:23:00,51.9,51.1,29.59,NNE,24,1.0,9.0,97,0.00,,,0.00,Wunderground v.1.15,2013-06-14 08:23:00,
2013-06-14 04:25:00,51.9,51.1,29.59,NNE,24,1.0,9.0,97,0.00,,,0.00,Wunderground v.1.15,2013-06-14 08:25:00,
2013-06-14 04:28:00,51.9,51.1,29.59,NE,37,0.0,9.0,97,0.00,,,0.00,Wunderground v.1.15,2013-06-14 08:28:00,
2013-06-14 04:30:00,51.9,51.1,29.59,NE,37,0.0,9.0,97,0.00,,,0.00,Wunderground v.1.15,2013-06-14 08:30:00,
2013-06-14 04:32:00,51.9,51.1,29.59,NE,37,0.0,9.0,97,0.00,,,0.00,Wunderground v.1.15,2013-06-14 08:32:00,
2013-06-14 04:36:00,51.9,51.1,29.59,NE,37,0.0,9.0,97,0.00,,,0.00,Wunderground v.1.15,2013-06-14 08:36:00,
2013-06-14 04:37:00,51.9,51.1,29.59,NE,37,0.0,9.0,97,0.00,,,0.00,Wunderground v.1.15,2013-06-14 08:37:00,
2013-06-14 04:38:00,51.9,51.1,29.59,NE,37,0.0,9.0,97,0.00,,,0.00,Wunderground v.1.15,2013-06-14 08:38:00,
2013-06-14 04:40:00,51.9,51.1,29.59,NE,37,0.0,9.0,97,0.00,,,0.00,Wunderground v.1.15,2013-06-14 08:40:00,
2013-06-14 04:41:00,51.9,51.1,29.59,NE,37,0.0,9.0,97,0.00,,,0.00,Wunderground v.1.15,2013-06-14 08:41:00,
2013-06-14 04:42:00,51.9,51.1,29.59,NE,37,0.0,9.0,97,0.00,,,0.00,Wunderground v.1.15,2013-06-14 08:42:00,
2013-06-14 04:44:00,51.9,51.1,29.59,NE,37,0.0,9.0,97,0.00,,,0.00,Wunderground v.1.15,2013-06-14 08:44:00,
2013-06-14 04:45:00,51.9,51.1,29.59,NE,37,0.0,9.0,97,0.00,,,0.00,Wunderground v.1.15,2013-06-14 08:45:00,
2013-06-14 04:46:00,51.9,51.1,29.59,NE,37,0.0,9.0,97,0.00,,,0.00,Wunderground v.1.15,2013-06-14 08:46:00,
2013-06-14 04:50:00,51.9,51.1,29.59,NE,37,0.0,9.0,97,0.00,,,0.00,Wunderground v.1.15,2013-06-14 08:50:00,
2013-06-14 04:51:00,51.9,51.1,29.59,NE,37,0.0,9.0,97,0.00,,,0.00,Wunderground v.1.15,2013-06-14 08:51:00,
2013-06-14 04:52:00,51.9,51.1,29.59,NE,37,0.0,9.0,97,0.00,,,0.00,Wunderground v.1.15,2013-06-14 08:52:00,
2013-06-14 04:55:00,51.9,51.1,29.59,NNE,29,0.0,9.0,97,0.00,,,0.00,Wunderground v.1.15,2013-06-14 08:55:00,
2013-06-14 04:56:00,51.9,51.1,29.59,NNW,340,0.0,9.0,97,0.00,,,0.00,Wunderground v.1.15,2013-06-14 08:56:00,
2013-06-14 04:58:00,51.9,51.1,29.59,NNW,340,0.0,9.0,97,0.00,,,0.00,Wunderground v.1.15,2013-06-14 08:58:00,
2013-06-14 05:00:00,51.9,51.1,29.59,NNW,340,0.0,2.0,97,0.00,,,0.00,Wunderground v.1.15,2013-06-14 09:00:00,
2013-06-14 05:02:00,51.9,51.1,29.59,NNW,340,0.0,2.0,97,0.00,,,0.00,Wunderground v.1.15,2013-06-14 09:02:00,
2013-06-14 05:03:00,51.9,51.1,29.59,NNW,340,0.0,2.0,97,0.00,,,0.00,Wunderground v.1.15,2013-06-14 09:03:00,
2013-06-14 05:04:00,51.8,51.0,29.59,NNW,340,0.0,2.0,97,0.00,,,0.00,Wunderground v.1.15,2013-06-14 09:04:00,
2013-06-14 05:06:00,51.8,51.0,29.59,NNW,340,0.0,2.0,97,0.00,,,0.00,Wunderground v.1.15,2013-06-14 09:06:00,
2013-06-14 05:07:00,51.8,51.0,29.59,NNW,340,0.0,2.0,97,0.00,,,0.00,Wunderground v.1.15,2013-06-14 09:07:00,
2013-06-14 05:08:00,51.8,51.0,29.59,NNW,342,0.0,2.0,97,0.00,,,0.00,Wunderground v.1.15,2013-06-14 09:08:00,
2013-06-14 05:09:00,51.8,51.0,29.59,NNW,344,0.0,2.0,97,0.00,,,0.00,Wunderground v.1.15,2013-06-14 09:09:00,
2013-06-14 05:11:00,51.7,50.9,29.59,NNW,344,1.0,2.0,97,0.00,,,0.00,Wunderground v.1.15,2013-06-14 09:11:00,
2013-06-14 05:15:00,51.7,50.9,29.59,NNW,344,0.0,2.0,97,0.00,,,0.00,Wunderground v.1.15,2013-06-14 09:15:00,
2013-06-14 05:16:00,51.6,50.8,29.59,NNW,344,0.0,2.0,97,0.00,,,0.00,Wunderground v.1.15,2013-06-14 09:16:00,
2013-06-14 05:18:00,51.6,50.8,29.59,NNW,345,1.0,3.0,97,0.00,,,0.00,Wunderground v.1.15,2013-06-14 09:18:00,
2013-06-14 05:21:00,51.5,50.7,29.59,NNW,345,1.0,2.0,97,0.00,,,0.00,Wunderground v.1.15,2013-06-14 09:21:00,
2013-06-14 05:22:00,51.5,50.7,29.59,NNW,345,1.0,2.0,97,0.00,,,0.00,Wunderground v.1.15,2013-06-14 09:22:00,
2013-06-14 05:23:00,51.5,50.7,29.58,NNW,345,1.0,2.0,97,0.00,,,0.00,Wunderground v.1.15,2013-06-14 09:23:00,
2013-06-14 05:24:00,51.4,50.6,29.58,NNW,345,1.0,2.0,97,0.00,,,0.00,Wunderground v.1.15,2013-06-14 09:24:00,
2013-06-14 05:29:00,51.4,50.6,29.58,North,5,1.0,2.0,97,0.00,,,0.00,Wunderground v.1.15,2013-06-14 09:29:00,
2013-06-14 05:30:00,51.3,50.5,29.58,North,5,1.0,1.0,97,0.00,,,0.00,Wunderground v.1.15,2013-06-14 09:30:00,
2013-06-14 05:31:00,51.4,50.6,29.58,North,5,1.0,2.0,97,0.00,,,0.00,Wunderground v.1.15,2013-06-14 09:31:00,
2013-06-14 05:35:00,51.3,50.5,29.58,North,5,0.0,2.0,97,0.00,,,0.00,Wunderground v.1.15,2013-06-14 09:35:00,
2013-06-14 05:36:00,51.3,50.5,29.58,North,5,0.0,2.0,97,0.00,,,0.00,Wunderground v.1.15,2013-06-14 09:36:00,
2013-06-14 05:38:00,51.3,50.5,29.58,North,5,0.0,2.0,97,0.00,,,0.00,Wunderground v.1.15,2013-06-14 09:38:00,
2013-06-14 05:41:00,51.4,50.6,29.58,North,5,0.0,2.0,97,0.00,,,0.00,Wunderground v.1.15,2013-06-14 09:41:00,
2013-06-14 05:43:00,51.4,50.6,29.58,North,5,0.0,2.0,97,0.00,,,0.00,Wunderground v.1.15,2013-06-14 09:43:00,
2013-06-14 05:45:00,51.5,50.7,29.58,North,5,0.0,2.0,97,0.00,,,0.00,Wunderground v.1.15,2013-06-14 09:45:00,
2013-06-14 05:49:00,51.5,50.7,29.58,NNW,333,0.0,2.0,97,0.00,,,0.00,Wunderground v.1.15,2013-06-14 09:49:00,
2013-06-14 05:50:00,51.5,50.7,29.58,West,280,0.0,2.0,97,0.00,,,0.00,Wunderground v.1.15,2013-06-14 09:50:00,
2013-06-14 05:54:00,51.4,50.6,29.58,North,5,1.0,4.0,97,0.00,,,0.00,Wunderground v.1.15,2013-06-14 09:54:00,
2013-06-14 05:55:00,51.4,50.6,29.58,North,5,1.0,4.0,97,0.00,,,0.00,Wunderground v.1.15,2013-06-14 09:55:00,
2013-06-14 06:00:00,51.4,50.6,29.59,North,9,1.0,1.0,97,0.00,,,0.00,Wunderground v.1.15,2013-06-14 10:00:00,
2013-06-14 06:03:00,51.3,50.5,29.59,North,9,1.0,3.0,97,0.00,,,0.00,Wunderground v.1.15,2013-06-14 10:03:00,
2013-06-14 06:06:00,51.3,50.5,29.59,North,9,1.0,3.0,97,0.00,,,0.00,Wunderground v.1.15,2013-06-14 10:06:00,
2013-06-14 06:07:00,51.3,50.5,29.59,North,9,0.0,3.0,97,0.00,,,0.00,Wunderground v.1.15,2013-06-14 10:07:00,
2013-06-14 06:10:00,51.3,50.5,29.59,North,9,0.0,3.0,97,0.00,,,0.00,Wunderground v.1.15,2013-06-14 10:10:00,
2013-06-14 06:11:00,51.3,50.5,29.59,North,9,0.0,3.0,97,0.00,,,0.00,Wunderground v.1.15,2013-06-14 10:11:00,
2013-06-14 06:14:00,51.3,50.5,29.59,North,355,0.0,3.0,97,0.00,,,0.00,Wunderground v.1.15,2013-06-14 10:14:00,
2013-06-14 06:15:00,51.3,50.5,29.59,North,355,0.0,3.0,97,0.00,,,0.00,Wunderground v.1.15,2013-06-14 10:15:00,
2013-06-14 06:17:00,51.3,50.5,29.59,North,360,0.0,3.0,97,0.00,,,0.00,Wunderground v.1.15,2013-06-14 10:17:00,
2013-06-14 06:19:00,51.3,50.5,29.59,North,360,0.0,3.0,97,0.00,,,0.00,Wunderground v.1.15,2013-06-14 10:19:00,
2013-06-14 06:21:00,51.3,50.5,29.59,North,5,0.0,3.0,97,0.00,,,0.00,Wunderground v.1.15,2013-06-14 10:21:00,
2013-06-14 06:23:00,51.4,50.6,29.59,North,5,0.0,3.0,97,0.00,,,0.00,Wunderground v.1.15,2013-06-14 10:23:00,
2013-06-14 06:26:00,51.3,50.5,29.59,North,360,0.0,3.0,97,0.00,,,0.00,Wunderground v.1.15,2013-06-14 10:26:00,
2013-06-14 06:28:00,51.4,50.6,29.59,NE,44,0.0,3.0,97,0.00,,,0.00,Wunderground v.1.15,2013-06-14 10:28:00,
2013-06-14 06:30:00,51.4,50.6,29.59,North,355,0.0,3.0,97,0.00,,,0.00,Wunderground v.1.15,2013-06-14 10:30:00,
2013-06-14 06:32:00,51.4,50.6,29.59,ESE,119,0.0,3.0,97,0.00,,,0.00,Wunderground v.1.15,2013-06-14 10:32:00,
2013-06-14 06:33:00,51.4,50.6,29.59,ESE,119,0.0,3.0,97,0.00,,,0.00,Wunderground v.1.15,2013-06-14 10:33:00,
2013-06-14 06:35:00,51.4,50.6,29.59,SSE,167,0.0,3.0,97,0.00,,,0.00,Wunderground v.1.15,2013-06-14 10:35:00,
2013-06-14 06:36:00,51.4,50.6,29.59,SSE,166,0.0,3.0,97,0.00,,,0.00,Wunderground v.1.15,2013-06-14 10:36:00,
2013-06-14 06:38:00,51.4,50.6,29.59,SSE,166,0.0,3.0,97,0.00,,,0.00,Wunderground v.1.15,2013-06-14 10:38:00,
2013-06-14 06:39:00,51.5,50.7,29.59,West,279,0.0,3.0,97,0.00,,,0.00,Wunderground v.1.15,2013-06-14 10:39:00,
2013-06-14 06:41:00,51.5,50.7,29.59,West,279,0.0,3.0,97,0.00,,,0.00,Wunderground v.1.15,2013-06-14 10:41:00,
2013-06-14 06:42:00,51.5,50.7,29.59,SSE,162,0.0,3.0,97,0.00,,,0.00,Wunderground v.1.15,2013-06-14 10:42:00,
2013-06-14 06:44:00,51.5,50.7,29.59,SSE,162,0.0,3.0,97,0.00,,,0.00,Wunderground v.1.15,2013-06-14 10:44:00,
2013-06-14 06:47:00,51.6,50.8,29.60,SW,232,0.0,3.0,97,0.00,,,0.00,Wunderground v.1.15,2013-06-14 10:47:00,
2013-06-14 06:48:00,51.6,50.8,29.60,SW,232,0.0,3.0,97,0.00,,,0.00,Wunderground v.1.15,2013-06-14 10:48:00,
2013-06-14 06:49:00,51.6,50.8,29.60,SW,232,0.0,3.0,97,0.00,,,0.00,Wunderground v.1.15,2013-06-14 10:49:00,
2013-06-14 06:53:00,51.6,50.8,29.60,SW,232,0.0,3.0,97,0.00,,,0.00,Wunderground v.1.15,2013-06-14 10:53:00,
2013-06-14 06:55:00,51.6,50.8,29.60,SW,232,0.0,3.0,97,0.00,,,0.00,Wunderground v.1.15,2013-06-14 10:55:00,
2013-06-14 06:57:00,51.7,50.9,29.60,SW,232,0.0,3.0,97,0.00,,,0.00,Wunderground v.1.15,2013-06-14 10:57:00,
2013-06-14 07:00:00,51.7,50.9,29.60,SW,232,0.0,2.0,97,0.00,,,0.00,Wunderground v.1.15,2013-06-14 11:00:00,
2013-06-14 07:01:00,51.7,50.9,29.60,SW,232,0.0,2.0,97,0.00,,,0.00,Wunderground v.1.15,2013-06-14 11:01:00,
2013-06-14 07:02:00,51.7,50.9,29.60,WNW,298,0.0,2.0,97,0.00,,,0.00,Wunderground v.1.15,2013-06-14 11:02:00,
2013-06-14 07:03:00,51.8,51.0,29.60,WNW,298,0.0,2.0,97,0.00,,,0.00,Wunderground v.1.15,2013-06-14 11:03:00,
2013-06-14 07:04:00,51.7,50.9,29.60,WNW,298,0.0,2.0,97,0.00,,,0.00,Wunderground v.1.15,2013-06-14 11:04:00,
2013-06-14 07:09:00,51.8,51.0,29.60,WNW,298,0.0,2.0,97,0.00,,,0.00,Wunderground v.1.15,2013-06-14 11:09:00,
2013-06-14 07:10:00,51.8,51.0,29.60,WNW,298,0.0,2.0,97,0.00,,,0.00,Wunderground v.1.15,2013-06-14 11:10:00,
2013-06-14 07:11:00,51.8,51.0,29.60,WNW,298,0.0,2.0,97,0.00,,,0.00,Wunderground v.1.15,2013-06-14 11:11:00,
2013-06-14 07:12:00,51.8,51.0,29.60,WNW,298,0.0,2.0,97,0.00,,,0.00,Wunderground v.1.15,2013-06-14 11:12:00,
2013-06-14 07:14:00,51.8,51.0,29.60,WNW,298,0.0,2.0,97,0.00,,,0.00,Wunderground v.1.15,2013-06-14 11:14:00,
2013-06-14 07:16:00,51.8,51.0,29.60,West,277,0.0,2.0,97,0.00,,,0.00,Wunderground v.1.15,2013-06-14 11:16:00,
2013-06-14 07:17:00,51.8,51.0,29.60,West,277,0.0,2.0,97,0.00,,,0.00,Wunderground v.1.15,2013-06-14 11:17:00,
2013-06-14 07:18:00,51.8,51.0,29.60,West,277,0.0,2.0,97,0.00,,,0.00,Wunderground v.1.15,2013-06-14 11:18:00,
2013-06-14 07:21:00,51.8,51.0,29.60,NNW,342,0.0,2.0,97,0.00,,,0.00,Wunderground v.1.15,2013-06-14 11:21:00,
2013-06-14 07:23:00,51.8,51.0,29.60,NNW,342,0.0,2.0,97,0.00,,,0.00,Wunderground v.1.15,2013-06-14 11:23:00,
2013-06-14 07:24:00,51.8,51.0,29.60,NNW,342,0.0,2.0,97,0.00,,,0.00,Wunderground v.1.15,2013-06-14 11:24:00,
2013-06-14 07:27:00,51.8,51.0,29.60,NNW,342,0.0,2.0,97,0.00,,,0.00,Wunderground v.1.15,2013-06-14 11:27:00,
2013-06-14 07:29:00,51.8,51.0,29.60,NNW,342,0.0,2.0,97,0.00,,,0.00,Wunderground v.1.15,2013-06-14 11:29:00,
2013-06-14 07:31:00,51.8,51.0,29.60,NNW,342,0.0,2.0,97,0.00,,,0.00,Wunderground v.1.15,2013-06-14 11:31:00,
2013-06-14 07:32:00,51.8,51.0,29.60,NNW,342,0.0,2.0,97,0.00,,,0.00,Wunderground v.1.15,2013-06-14 11:32:00,
2013-06-14 07:33:00,51.8,51.0,29.60,NNW,342,0.0,2.0,97,0.00,,,0.00,Wunderground v.1.15,2013-06-14 11:33:00,
2013-06-14 07:35:00,51.8,51.0,29.61,NNW,342,0.0,2.0,97,0.00,,,0.00,Wunderground v.1.15,2013-06-14 11:35:00,
2013-06-14 07:39:00,51.8,51.0,29.60,NNW,341,0.0,2.0,97,0.00,,,0.00,Wunderground v.1.15,2013-06-14 11:39:00,
2013-06-14 07:41:00,51.8,51.0,29.60,NNW,341,0.0,2.0,97,0.00,,,0.00,Wunderground v.1.15,2013-06-14 11:41:00,
2013-06-14 07:42:00,51.8,51.0,29.60,NNW,341,0.0,2.0,97,0.00,,,0.00,Wunderground v.1.15,2013-06-14 11:42:00,
2013-06-14 07:45:00,51.9,51.1,29.60,NNW,341,0.0,2.0,97,0.00,,,0.00,Wunderground v.1.15,2013-06-14 11:45:00,
2013-06-14 07:47:00,51.9,51.1,29.60,NNW,341,0.0,2.0,97,0.00,,,0.00,Wunderground v.1.15,2013-06-14 11:47:00,
2013-06-14 07:48:00,51.9,51.1,29.60,NNW,341,0.0,2.0,97,0.00,,,0.00,Wunderground v.1.15,2013-06-14 11:48:00,
2013-06-14 07:52:00,51.9,51.1,29.61,NNW,342,0.0,2.0,97,0.00,,,0.00,Wunderground v.1.15,2013-06-14 11:52:00,
2013-06-14 07:54:00,51.9,51.1,29.61,NNW,342,0.0,2.0,97,0.00,,,0.00,Wunderground v.1.15,2013-06-14 11:54:00,
2013-06-14 07:55:00,51.9,51.1,29.61,NNW,342,0.0,2.0,97,0.00,,,0.00,Wunderground v.1.15,2013-06-14 11:55:00,
2013-06-14 07:57:00,52.0,51.2,29.61,NNW,342,0.0,2.0,97,0.00,,,0.00,Wunderground v.1.15,2013-06-14 11:57:00,
2013-06-14 07:59:00,52.0,51.2,29.61,NNW,342,0.0,2.0,97,0.00,,,0.00,Wunderground v.1.15,2013-06-14 11:59:00,
2013-06-14 08:01:00,52.1,51.3,29.61,NNW,342,0.0,3.0,97,0.00,,,0.00,Wunderground v.1.15,2013-06-14 12:01:00,
2013-06-14 08:04:00,52.3,51.5,29.61,NNW,342,0.0,3.0,97,0.00,,,0.00,Wunderground v.1.15,2013-06-14 12:04:00,
2013-06-14 08:05:00,52.3,51.5,29.61,NNW,342,0.0,3.0,97,0.00,,,0.00,Wunderground v.1.15,2013-06-14 12:05:00,
2013-06-14 08:07:00,52.4,51.6,29.61,NNW,342,0.0,3.0,97,0.00,,,0.00,Wunderground v.1.15,2013-06-14 12:07:00,
2013-06-14 08:11:00,52.4,51.6,29.61,NNW,342,0.0,3.0,97,0.00,,,0.00,Wunderground v.1.15,2013-06-14 12:11:00,
2013-06-14 08:13:00,52.5,51.7,29.61,NNW,342,0.0,3.0,97,0.00,,,0.00,Wunderground v.1.15,2013-06-14 12:13:00,
2013-06-14 08:14:00,52.5,51.4,29.61,NNW,342,1.0,3.0,96,0.00,,,0.00,Wunderground v.1.15,2013-06-14 12:14:00,
2013-06-14 08:17:00,52.6,51.5,29.61,NNW,342,1.0,3.0,96,0.00,,,0.00,Wunderground v.1.15,2013-06-14 12:17:00,
2013-06-14 08:18:00,52.6,51.5,29.61,NNW,342,0.0,3.0,96,0.00,,,0.00,Wunderground v.1.15,2013-06-14 12:18:00,
2013-06-14 08:21:00,52.7,51.6,29.61,North,10,1.0,4.0,96,0.00,,,0.00,Wunderground v.1.15,2013-06-14 12:21:00,
2013-06-14 08:23:00,52.7,51.6,29.61,North,10,1.0,4.0,96,0.00,,,0.00,Wunderground v.1.15,2013-06-14 12:23:00,
2013-06-14 08:24:00,52.8,51.7,29.61,NNE,25,1.0,4.0,96,0.00,,,0.00,Wunderground v.1.15,2013-06-14 12:24:00,
2013-06-14 08:25:00,52.8,51.7,29.61,NNE,25,1.0,4.0,96,0.00,,,0.00,Wunderground v.1.15,2013-06-14 12:25:00,
2013-06-14 08:26:00,52.8,51.7,29.61,NNE,21,1.0,4.0,96,0.00,,,0.00,Wunderground v.1.15,2013-06-14 12:26:00,
2013-06-14 08:27:00,52.8,51.7,29.61,NNE,22,2.0,4.0,96,0.00,,,0.00,Wunderground v.1.15,2013-06-14 12:27:00,
2013-06-14 08:29:00,52.9,51.8,29.61,NNE,22,2.0,4.0,96,0.00,,,0.00,Wunderground v.1.15,2013-06-14 12:29:00,
2013-06-14 08:30:00,53.0,51.9,29.61,NNE,22,1.0,4.0,96,0.00,,,0.00,Wunderground v.1.15,2013-06-14 12:30:00,
2013-06-14 08:33:00,53.0,51.9,29.61,West,275,1.0,4.0,96,0.00,,,0.00,Wunderground v.1.15,2013-06-14 12:33:00,
2013-06-14 08:34:00,53.1,52.0,29.61,West,275,1.0,4.0,96,0.00,,,0.00,Wunderground v.1.15,2013-06-14 12:34:00,
2013-06-14 08:35:00,53.1,52.0,29.62,West,278,1.0,4.0,96,0.00,,,0.00,Wunderground v.1.15,2013-06-14 12:35:00,
2013-06-14 08:38:00,53.2,52.1,29.62,West,278,0.0,4.0,96,0.00,,,0.00,Wunderground v.1.15,2013-06-14 12:38:00,
2013-06-14 08:40:00,53.2,52.1,29.62,West,279,0.0,3.0,96,0.00,,,0.00,Wunderground v.1.15,2013-06-14 12:40:00,
2013-06-14 08:42:00,53.2,52.1,29.62,West,279,0.0,3.0,96,0.00,,,0.00,Wunderground v.1.15,2013-06-14 12:42:00,
2013-06-14 08:43:00,53.3,52.2,29.62,West,279,0.0,3.0,96,0.00,,,0.00,Wunderground v.1.15,2013-06-14 12:43:00,
2013-06-14 08:45:00,53.4,52.3,29.62,West,279,0.0,3.0,96,0.00,,,0.00,Wunderground v.1.15,2013-06-14 12:45:00,
2013-06-14 08:46:00,53.4,52.3,29.62,West,279,0.0,3.0,96,0.00,,,0.00,Wunderground v.1.15,2013-06-14 12:46:00,
2013-06-14 08:48:00,53.4,52.3,29.62,West,279,0.0,3.0,96,0.00,,,0.00,Wunderground v.1.15,2013-06-14 12:48:00,
2013-06-14 08:50:00,53.5,52.4,29.62,West,279,0.0,3.0,96,0.00,,,0.00,Wunderground v.1.15,2013-06-14 12:50:00,
2013-06-14 08:51:00,53.5,52.4,29.62,West,279,0.0,3.0,96,0.00,,,0.00,Wunderground v.1.15,2013-06-14 12:51:00,
2013-06-14 08:53:00,53.5,52.4,29.62,West,279,0.0,3.0,96,0.00,,,0.00,Wunderground v.1.15,2013-06-14 12:53:00,
2013-06-14 08:55:00,53.6,52.5,29.62,West,279,0.0,3.0,96,0.00,,,0.00,Wunderground v.1.15,2013-06-14 12:55:00,
2013-06-14 08:56:00,53.6,52.5,29.62,West,279,0.0,3.0,96,0.00,,,0.00,Wunderground v.1.15,2013-06-14 12:56:00,
2013-06-14 08:57:00,53.7,52.6,29.62,West,279,0.0,3.0,96,0.00,,,0.00,Wunderground v.1.15,2013-06-14 12:57:00,
2013-06-14 08:58:00,53.7,52.3,29.62,West,279,0.0,3.0,95,0.00,,,0.00,Wunderground v.1.15,2013-06-14 12:58:00,
2013-06-14 09:02:00,54.0,52.6,29.62,West,279,0.0,3.0,95,0.00,,,0.00,Wunderground v.1.15,2013-06-14 13:02:00,
2013-06-14 09:03:00,54.0,52.6,29.62,West,279,0.0,3.0,95,0.00,,,0.00,Wunderground v.1.15,2013-06-14 13:03:00,
2013-06-14 09:04:00,54.0,52.6,29.62,West,279,0.0,3.0,95,0.00,,,0.00,Wunderground v.1.15,2013-06-14 13:04:00,
2013-06-14 09:06:00,54.1,52.7,29.62,West,279,0.0,3.0,95,0.00,,,0.00,Wunderground v.1.15,2013-06-14 13:06:00,
2013-06-14 09:07:00,54.1,52.7,29.62,West,279,0.0,3.0,95,0.00,,,0.00,Wunderground v.1.15,2013-06-14 13:07:00,
2013-06-14 09:10:00,54.2,52.8,29.62,West,279,0.0,3.0,95,0.00,,,0.00,Wunderground v.1.15,2013-06-14 13:10:00,
2013-06-14 09:12:00,54.4,53.0,29.62,West,279,0.0,3.0,95,0.00,,,0.00,Wunderground v.1.15,2013-06-14 13:12:00,
2013-06-14 09:17:00,54.5,53.1,29.62,West,279,0.0,3.0,95,0.00,,,0.00,Wunderground v.1.15,2013-06-14 13:17:00,
2013-06-14 09:18:00,54.6,53.2,29.62,West,279,0.0,3.0,95,0.00,,,0.00,Wunderground v.1.15,2013-06-14 13:18:00,
2013-06-14 09:19:00,54.6,53.2,29.62,West,279,0.0,3.0,95,0.00,,,0.00,Wunderground v.1.15,2013-06-14 13:19:00,
2013-06-14 09:22:00,54.8,53.4,29.62,West,279,0.0,3.0,95,0.00,,,0.00,Wunderground v.1.15,2013-06-14 13:22:00,
2013-06-14 09:24:00,54.9,53.2,29.63,West,279,0.0,3.0,94,0.00,,,0.00,Wunderground v.1.15,2013-06-14 13:24:00,
2013-06-14 09:26:00,54.9,53.2,29.63,West,279,0.0,3.0,94,0.00,,,0.00,Wunderground v.1.15,2013-06-14 13:26:00,
2013-06-14 09:28:00,55.0,53.3,29.63,West,279,0.0,3.0,94,0.00,,,0.00,Wunderground v.1.15,2013-06-14 13:28:00,
2013-06-14 09:30:00,55.0,53.3,29.63,West,279,0.0,3.0,94,0.00,,,0.00,Wunderground v.1.15,2013-06-14 13:30:00,
2013-06-14 09:32:00,55.1,53.4,29.63,West,279,0.0,3.0,94,0.00,,,0.00,Wunderground v.1.15,2013-06-14 13:32:00,
2013-06-14 09:35:00,55.3,53.6,29.63,West,279,0.0,3.0,94,0.00,,,0.00,Wunderground v.1.15,2013-06-14 13:35:00,
2013-06-14 09:38:00,55.4,53.4,29.63,West,279,0.0,3.0,93,0.00,,,0.00,Wunderground v.1.15,2013-06-14 13:38:00,
2013-06-14 09:41:00,55.5,53.5,29.63,West,279,0.0,3.0,93,0.00,,,0.00,Wunderground v.1.15,2013-06-14 13:41:00,
2013-06-14 09:42:00,55.6,53.6,29.62,West,279,0.0,3.0,93,0.00,,,0.00,Wunderground v.1.15,2013-06-14 13:42:00,
2013-06-14 09:45:00,56.0,54.0,29.62,West,279,0.0,3.0,93,0.00,,,0.00,Wunderground v.1.15,2013-06-14 13:45:00,
2013-06-14 09:46:00,56.1,54.4,29.62,West,279,0.0,3.0,94,0.00,,,0.00,Wunderground v.1.15,2013-06-14 13:46:00,
2013-06-14 09:50:00,56.1,54.1,29.62,West,279,0.0,3.0,93,0.00,,,0.00,Wunderground v.1.15,2013-06-14 13:50:00,
2013-06-14 09:53:00,56.1,53.8,29.62,West,279,0.0,3.0,92,0.00,,,0.00,Wunderground v.1.15,2013-06-14 13:53:00,
2013-06-14 09:54:00,56.1,53.8,29.62,West,279,0.0,3.0,92,0.00,,,0.00,Wunderground v.1.15,2013-06-14 13:54:00,
2013-06-14 09:58:00,56.2,53.9,29.62,West,279,0.0,3.0,92,0.00,,,0.00,Wunderground v.1.15,2013-06-14 13:58:00,
2013-06-14 09:59:00,56.2,53.6,29.62,West,279,0.0,3.0,91,0.00,,,0.00,Wunderground v.1.15,2013-06-14 13:59:00,
2013-06-14 10:00:00,56.3,53.7,29.62,West,279,0.0,0.0,91,0.00,,,0.00,Wunderground v.1.15,2013-06-14 14:00:00,
2013-06-14 10:02:00,56.4,53.8,29.62,West,279,0.0,0.0,91,0.00,,,0.00,Wunderground v.1.15,2013-06-14 14:02:00,
2013-06-14 10:04:00,56.6,54.0,29.62,West,279,0.0,0.0,91,0.00,,,0.00,Wunderground v.1.15,2013-06-14 14:04:00,
2013-06-14 10:06:00,56.9,54.6,29.62,West,279,0.0,0.0,92,0.00,,,0.00,Wunderground v.1.15,2013-06-14 14:06:00,
2013-06-14 10:07:00,56.9,54.3,29.62,West,279,0.0,0.0,91,0.00,,,0.00,Wunderground v.1.15,2013-06-14 14:07:00,
2013-06-14 10:10:00,57.2,54.6,29.62,West,279,0.0,0.0,91,0.00,,,0.00,Wunderground v.1.15,2013-06-14 14:10:00,
2013-06-14 10:12:00,57.4,54.8,29.62,West,279,0.0,0.0,91,0.00,,,0.00,Wunderground v.1.15,2013-06-14 14:12:00,
2013-06-14 10:14:00,57.5,54.6,29.62,West,279,0.0,0.0,90,0.00,,,0.00,Wunderground v.1.15,2013-06-14 14:14:00,
2013-06-14 10:15:00,57.5,54.6,29.62,West,279,0.0,0.0,90,0.00,,,0.00,Wunderground v.1.15,2013-06-14 14:15:00,
2013-06-14 10:20:00,57.7,54.8,29.62,West,279,0.0,0.0,90,0.00,,,0.00,Wunderground v.1.15,2013-06-14 14:20:00,
2013-06-14 10:21:00,57.8,54.9,29.62,West,279,0.0,0.0,90,0.00,,,0.00,Wunderground v.1.15,2013-06-14 14:21:00,
2013-06-14 10:22:00,57.8,54.9,29.62,West,279,0.0,0.0,90,0.00,,,0.00,Wunderground v.1.15,2013-06-14 14:22:00,
2013-06-14 10:23:00,57.8,54.9,29.62,West,279,0.0,0.0,90,0.00,,,0.00,Wunderground v.1.15,2013-06-14 14:23:00,
2013-06-14 10:26:00,58.1,55.2,29.63,West,279,0.0,2.0,90,0.00,,,0.00,Wunderground v.1.15,2013-06-14 14:26:00,
2013-06-14 10:29:00,58.1,54.9,29.63,West,281,0.0,2.0,89,0.00,,,0.00,Wunderground v.1.15,2013-06-14 14:29:00,
2013-06-14 10:30:00,58.1,54.9,29.63,West,281,0.0,0.0,89,0.00,,,0.00,Wunderground v.1.15,2013-06-14 14:30:00,
2013-06-14 10:34:00,58.5,55.6,29.63,West,281,0.0,0.0,90,0.00,,,0.00,Wunderground v.1.15,2013-06-14 14:34:00,
2013-06-14 10:35:00,58.7,55.8,29.63,West,281,0.0,0.0,90,0.00,,,0.00,Wunderground v.1.15,2013-06-14 14:35:00,
2013-06-14 10:37:00,58.9,56.0,29.63,West,281,0.0,0.0,90,0.00,,,0.00,Wunderground v.1.15,2013-06-14 14:37:00,
2013-06-14 10:38:00,59.2,56.3,29.63,WNW,286,0.0,0.0,90,0.00,,,0.00,Wunderground v.1.15,2013-06-14 14:38:00,
2013-06-14 10:41:00,59.6,56.4,29.63,WNW,286,0.0,0.0,89,0.00,,,0.00,Wunderground v.1.15,2013-06-14 14:41:00,
2013-06-14 10:44:00,60.1,56.8,29.63,NNE,12,0.0,5.0,89,0.00,,,0.00,Wunderground v.1.15,2013-06-14 14:44:00,
2013-06-14 10:46:00,60.3,56.7,29.63,North,11,1.0,5.0,88,0.00,,,0.00,Wunderground v.1.15,2013-06-14 14:46:00,
2013-06-14 10:47:00,60.4,56.8,29.63,North,11,1.0,5.0,88,0.00,,,0.00,Wunderground v.1.15,2013-06-14 14:47:00,
2013-06-14 10:50:00,60.6,56.7,29.63,North,11,1.0,1.0,87,0.00,,,0.00,Wunderground v.1.15,2013-06-14 14:50:00,
2013-06-14 10:51:00,60.7,56.8,29.63,North,11,1.0,1.0,87,0.00,,,0.00,Wunderground v.1.15,2013-06-14 14:51:00,
2013-06-14 10:54:00,61.3,57.7,29.63,NE,34,0.0,1.0,88,0.00,,,0.00,Wunderground v.1.15,2013-06-14 14:54:00,
2013-06-14 10:56:00,61.3,57.4,29.63,NE,34,0.0,3.0,87,0.00,,,0.00,Wunderground v.1.15,2013-06-14 14:56:00,
2013-06-14 10:58:00,61.4,57.2,29.63,NE,34,0.0,3.0,86,0.00,,,0.00,Wunderground v.1.15,2013-06-14 14:58:00,
2013-06-14 11:00:00,61.5,56.9,29.63,NW,325,1.0,5.0,85,0.00,,,0.00,Wunderground v.1.15,2013-06-14 15:00:00,
2013-06-14 11:01:00,61.5,56.9,29.63,NNE,25,1.0,5.0,85,0.00,,,0.00,Wunderground v.1.15,2013-06-14 15:01:00,
2013-06-14 11:04:00,61.6,56.7,29.63,NNE,13,2.0,5.0,84,0.00,,,0.00,Wunderground v.1.15,2013-06-14 15:04:00,
2013-06-14 11:06:00,62.0,58.1,29.63,North,355,2.0,5.0,87,0.00,,,0.00,Wunderground v.1.15,2013-06-14 15:06:00,
2013-06-14 11:08:00,62.3,58.1,29.63,North,355,2.0,5.0,86,0.00,,,0.00,Wunderground v.1.15,2013-06-14 15:08:00,
2013-06-14 11:09:00,62.4,58.2,29.63,North,355,2.0,5.0,86,0.00,,,0.00,Wunderground v.1.15,2013-06-14 15:09:00,
2013-06-14 11:11:00,62.7,58.1,29.63,NNE,12,1.0,3.0,85,0.00,,,0.00,Wunderground v.1.15,2013-06-14 15:11:00,
2013-06-14 11:12:00,62.7,57.5,29.63,North,351,1.0,7.0,83,0.00,,,0.00,Wunderground v.1.15,2013-06-14 15:12:00,
2013-06-14 11:15:00,62.5,56.6,29.63,NNW,334,2.0,7.0,81,0.00,,,0.00,Wunderground v.1.15,2013-06-14 15:15:00,
2013-06-14 11:16:00,62.5,56.2,29.63,NNW,333,2.0,7.0,80,0.00,,,0.00,Wunderground v.1.15,2013-06-14 15:16:00,
2013-06-14 11:17:00,62.5,56.2,29.63,NNW,333,2.0,7.0,80,0.00,,,0.00,Wunderground v.1.15,2013-06-14 15:17:00,
2013-06-14 11:18:00,62.5,56.2,29.63,NNW,331,2.0,7.0,80,0.00,,,0.00,Wunderground v.1.15,2013-06-14 15:18:00,
2013-06-14 11:19:00,62.5,56.2,29.63,NNE,17,2.0,7.0,80,0.00,,,0.00,Wunderground v.1.15,2013-06-14 15:19:00,
2013-06-14 11:23:00,62.5,55.5,29.63,NNW,333,2.0,6.0,78,0.00,,,0.00,Wunderground v.1.15,2013-06-14 15:23:00,
2013-06-14 11:24:00,62.5,56.2,29.63,NNW,333,2.0,6.0,80,0.00,,,0.00,Wunderground v.1.15,2013-06-14 15:24:00,
2013-06-14 11:25:00,62.6,56.3,29.63,NNW,335,2.0,6.0,80,0.00,,,0.00,Wunderground v.1.15,2013-06-14 15:25:00,
2013-06-14 11:26:00,62.7,56.8,29.63,NNW,335,2.0,6.0,81,0.00,,,0.00,Wunderground v.1.15,2013-06-14 15:26:00,
2013-06-14 11:30:00,62.9,55.6,29.63,NNE,22,2.0,2.0,77,0.00,,,0.00,Wunderground v.1.15,2013-06-14 15:30:00,
2013-06-14 11:31:00,63.0,55.7,29.63,NNE,22,2.0,5.0,77,0.00,,,0.00,Wunderground v.1.15,2013-06-14 15:31:00,
2013-06-14 11:33:00,63.4,56.4,29.64,East,101,1.0,5.0,78,0.00,,,0.00,Wunderground v.1.15,2013-06-14 15:33:00,
2013-06-14 11:35:00,63.5,53.9,29.63,ESE,122,2.0,5.0,71,0.00,,,0.00,Wunderground v.1.15,2013-06-14 15:35:00,
2013-06-14 11:36:00,63.6,54.8,29.63,ESE,122,2.0,5.0,73,0.00,,,0.00,Wunderground v.1.15,2013-06-14 15:36:00,
2013-06-14 11:40:00,64.3,56.6,29.64,ESE,122,1.0,5.0,76,0.00,,,0.00,Wunderground v.1.15,2013-06-14 15:40:00,
2013-06-14 11:41:00,64.4,56.3,29.64,NE,46,2.0,5.0,75,0.00,,,0.00,Wunderground v.1.15,2013-06-14 15:41:00,
2013-06-14 11:42:00,64.6,56.9,29.64,NE,44,2.0,5.0,76,0.00,,,0.00,Wunderground v.1.15,2013-06-14 15:42:00,
2013-06-14 11:44:00,64.9,57.5,29.64,SE,128,1.0,5.0,77,0.00,,,0.00,Wunderground v.1.15,2013-06-14 15:44:00,
2013-06-14 11:48:00,65.5,57.4,29.64,SE,135,0.0,5.0,75,0.00,,,0.00,Wunderground v.1.15,2013-06-14 15:48:00,
2013-06-14 11:49:00,65.5,57.4,29.64,SSE,158,1.0,5.0,75,0.00,,,0.00,Wunderground v.1.15,2013-06-14 15:49:00,
2013-06-14 11:50:00,65.6,57.8,29.64,SSE,156,1.0,5.0,76,0.00,,,0.00,Wunderground v.1.15,2013-06-14 15:50:00,
2013-06-14 11:51:00,65.6,57.8,29.64,SSE,155,1.0,5.0,76,0.00,,,0.00,Wunderground v.1.15,2013-06-14 15:51:00,
2013-06-14 11:54:00,65.6,56.3,29.64,SSE,151,2.0,5.0,72,0.00,,,0.00,Wunderground v.1.15,2013-06-14 15:54:00,
2013-06-14 11:55:00,65.7,56.0,29.64,SE,126,2.0,5.0,71,0.00,,,0.00,Wunderground v.1.15,2013-06-14 15:55:00,
2013-06-14 11:56:00,65.7,56.4,29.64,ESE,111,2.0,5.0,72,0.00,,,0.00,Wunderground v.1.15,2013-06-14 15:56:00,
2013-06-14 11:58:00,65.6,56.3,29.64,SSE,160,3.0,6.0,72,0.00,,,0.00,Wunderground v.1.15,2013-06-14 15:58:00,
2013-06-14 11:59:00,65.6,56.3,29.64,SSE,160,3.0,6.0,72,0.00,,,0.00,Wunderground v.1.15,2013-06-14 15:59:00,
2013-06-14 12:00:00,65.5,55.8,29.64,ESE,123,3.0,3.0,71,0.00,,,0.00,Wunderground v.1.15,2013-06-14 16:00:00,
2013-06-14 12:04:00,65.4,55.7,29.64,ESE,113,4.0,8.0,71,0.00,,,0.00,Wunderground v.1.15,2013-06-14 16:04:00,
2013-06-14 12:05:00,65.3,55.3,29.64,ESE,113,4.0,8.0,70,0.00,,,0.00,Wunderground v.1.15,2013-06-14 16:05:00,
2013-06-14 12:06:00,65.3,56.4,29.64,ESE,113,4.0,8.0,73,0.00,,,0.00,Wunderground v.1.15,2013-06-14 16:06:00,
2013-06-14 12:11:00,65.8,57.3,29.63,ESE,117,3.0,3.0,74,0.00,,,0.00,Wunderground v.1.15,2013-06-14 16:11:00,
2013-06-14 12:12:00,65.9,57.4,29.64,NE,52,2.0,4.0,74,0.00,,,0.00,Wunderground v.1.15,2013-06-14 16:12:00,
2013-06-14 12:15:00,66.0,55.9,29.64,SE,126,1.0,6.0,70,0.00,,,0.00,Wunderground v.1.15,2013-06-14 16:15:00,
2013-06-14 12:17:00,66.1,56.4,29.63,SE,126,1.0,6.0,71,0.00,,,0.00,Wunderground v.1.15,2013-06-14 16:17:00,
2013-06-14 12:18:00,66.3,57.4,29.64,SE,126,1.0,6.0,73,0.00,,,0.00,Wunderground v.1.15,2013-06-14 16:18:00,
2013-06-14 12:20:00,66.5,56.8,29.63,SE,126,1.0,1.0,71,0.00,,,0.00,Wunderground v.1.15,2013-06-14 16:20:00,
2013-06-14 12:21:00,66.5,56.8,29.63,SE,126,1.0,6.0,71,0.00,,,0.00,Wunderground v.1.15,2013-06-14 16:21:00,
2013-06-14 12:24:00,66.8,57.1,29.63,SE,126,0.0,6.0,71,0.00,,,0.00,Wunderground v.1.15,2013-06-14 16:24:00,
2013-06-14 12:26:00,67.3,58.3,29.63,SE,126,0.0,6.0,73,0.00,,,0.00,Wunderground v.1.15,2013-06-14 16:26:00,
2013-06-14 12:27:00,67.4,58.1,29.63,SE,126,0.0,6.0,72,0.00,,,0.00,Wunderground v.1.15,2013-06-14 16:27:00,
2013-06-14 12:29:00,67.7,58.3,29.63,SE,126,0.0,6.0,72,0.00,,,0.00,Wunderground v.1.15,2013-06-14 16:29:00,
2013-06-14 12:31:00,68.0,57.4,29.63,SE,131,1.0,6.0,69,0.00,,,0.00,Wunderground v.1.15,2013-06-14 16:31:00,
2013-06-14 12:32:00,68.1,57.9,29.63,SE,132,1.0,6.0,70,0.00,,,0.00,Wunderground v.1.15,2013-06-14 16:32:00,
2013-06-14 12:35:00,68.6,59.6,29.63,SE,132,1.0,6.0,73,0.00,,,0.00,Wunderground v.1.15,2013-06-14 16:35:00,
2013-06-14 12:37:00,69.0,59.2,29.63,SE,132,1.0,6.0,71,0.00,,,0.00,Wunderground v.1.15,2013-06-14 16:37:00,
2013-06-14 12:39:00,69.2,58.2,29.63,South,175,0.0,6.0,68,0.00,,,0.00,Wunderground v.1.15,2013-06-14 16:39:00,
2013-06-14 12:42:00,69.0,56.3,29.63,South,180,1.0,6.0,64,0.00,,,0.00,Wunderground v.1.15,2013-06-14 16:42:00,
2013-06-14 12:43:00,68.9,57.1,29.63,South,180,1.0,6.0,66,0.00,,,0.00,Wunderground v.1.15,2013-06-14 16:43:00,
2013-06-14 12:47:00,69.1,58.1,29.63,ESE,119,3.0,6.0,68,0.00,,,0.00,Wunderground v.1.15,2013-06-14 16:47:00,
2013-06-14 12:49:00,69.3,57.9,29.63,SE,127,3.0,6.0,67,0.00,,,0.00,Wunderground v.1.15,2013-06-14 16:49:00,
2013-06-14 12:50:00,69.4,58.0,29.63,SE,127,3.0,3.0,67,0.00,,,0.00,Wunderground v.1.15,2013-06-14 16:50:00,
2013-06-14 12:51:00,69.5,57.2,29.63,ESE,123,2.0,6.0,65,0.00,,,0.00,Wunderground v.1.15,2013-06-14 16:51:00,
2013-06-14 12:52:00,69.6,56.9,29.62,SE,128,2.0,6.0,64,0.00,,,0.00,Wunderground v.1.15,2013-06-14 16:52:00,
2013-06-14 12:56:00,70.1,56.9,29.62,North,360,2.0,6.0,63,0.00,,,0.00,Wunderground v.1.15,2013-06-14 16:56:00,
2013-06-14 12:57:00,70.2,57.0,29.63,North,9,1.0,6.0,63,0.00,,,0.00,Wunderground v.1.15,2013-06-14 16:57:00,
2013-06-14 12:58:00,70.2,56.6,29.62,North,5,1.0,6.0,62,0.00,,,0.00,Wunderground v.1.15,2013-06-14 16:58:00,
2013-06-14 12:59:00,70.3,58.0,29.62,North,5,1.0,6.0,65,0.00,,,0.00,Wunderground v.1.15,2013-06-14 16:59:00,
2013-06-14 13:03:00,70.7,56.6,29.62,NE,38,1.0,10.0,61,0.00,,,0.00,Wunderground v.1.15,2013-06-14 17:03:00,
2013-06-14 13:05:00,70.8,58.0,29.62,NE,38,1.0,10.0,64,0.00,,,0.00,Wunderground v.1.15,2013-06-14 17:05:00,
2013-06-14 13:06:00,70.9,56.3,29.62,NNW,346,0.0,10.0,60,0.00,,,0.00,Wunderground v.1.15,2013-06-14 17:06:00,
2013-06-14 13:07:00,70.9,56.8,29.62,NNW,348,1.0,10.0,61,0.00,,,0.00,Wunderground v.1.15,2013-06-14 17:07:00,
2013-06-14 13:08:00,71.0,56.9,29.62,NNW,348,1.0,10.0,61,0.00,,,0.00,Wunderground v.1.15,2013-06-14 17:08:00,
2013-06-14 13:12:00,71.2,56.1,29.62,NNE,19,1.0,10.0,59,0.00,,,0.00,Wunderground v.1.15,2013-06-14 17:12:00,
2013-06-14 13:14:00,71.3,55.3,29.62,NNE,19,1.0,10.0,57,0.00,,,0.00,Wunderground v.1.15,2013-06-14 17:14:00,
2013-06-14 13:15:00,71.4,56.8,29.62,NNE,13,1.0,10.0,60,0.00,,,0.00,Wunderground v.1.15,2013-06-14 17:15:00,
2013-06-14 13:16:00,71.5,55.5,29.62,NNW,335,1.0,10.0,57,0.00,,,0.00,Wunderground v.1.15,2013-06-14 17:16:00,
2013-06-14 13:18:00,71.4,56.3,29.62,NNE,19,2.0,10.0,59,0.00,,,0.00,Wunderground v.1.15,2013-06-14 17:18:00,
2013-06-14 13:19:00,71.4,56.3,29.62,NNE,32,2.0,10.0,59,0.00,,,0.00,Wunderground v.1.15,2013-06-14 17:19:00,
2013-06-14 13:21:00,71.5,55.9,29.62,NNW,329,2.0,10.0,58,0.00,,,0.00,Wunderground v.1.15,2013-06-14 17:21:00,
2013-06-14 13:24:00,71.3,54.8,29.62,NNW,329,4.0,10.0,56,0.00,,,0.00,Wunderground v.1.15,2013-06-14 17:24:00,
2013-06-14 13:25:00,71.2,54.7,29.62,North,355,4.0,10.0,56,0.00,,,0.00,Wunderground v.1.15,2013-06-14 17:25:00,
2013-06-14 13:26:00,71.2,54.2,29.62,North,5,4.0,10.0,55,0.00,,,0.00,Wunderground v.1.15,2013-06-14 17:26:00,
2013-06-14 13:31:00,71.2,54.2,29.62,NNW,340,5.0,10.0,55,0.00,,,0.00,Wunderground v.1.15,2013-06-14 17:31:00,
2013-06-14 13:32:00,71.3,54.8,29.62,NNE,22,4.0,10.0,56,0.00,,,0.00,Wunderground v.1.15,2013-06-14 17:32:00,
2013-06-14 13:36:00,71.7,55.2,29.62,NNW,342,3.0,10.0,56,0.00,,,0.00,Wunderground v.1.15,2013-06-14 17:36:00,
2013-06-14 13:37:00,71.9,54.9,29.62,NE,34,3.0,10.0,55,0.00,,,0.00,Wunderground v.1.15,2013-06-14 17:37:00,
2013-06-14 13:40:00,72.0,53.4,29.62,North,355,3.0,10.0,52,0.00,,,0.00,Wunderground v.1.15,2013-06-14 17:40:00,
2013-06-14 13:42:00,71.9,52.8,29.62,NE,34,3.0,10.0,51,0.00,,,0.00,Wunderground v.1.15,2013-06-14 17:42:00,
2013-06-14 13:43:00,71.8,52.2,29.62,NNE,17,3.0,10.0,50,0.00,,,0.00,Wunderground v.1.15,2013-06-14 17:43:00,
2013-06-14 13:44:00,71.8,51.6,29.62,NNE,19,3.0,10.0,49,0.00,,,0.00,Wunderground v.1.15,2013-06-14 17:44:00,
2013-06-14 13:46:00,71.8,52.7,29.62,NNE,19,3.0,10.0,51,0.00,,,0.00,Wunderground v.1.15,2013-06-14 17:46:00,
2013-06-14 13:47:00,71.9,53.3,29.62,NNE,19,3.0,10.0,52,0.00,,,0.00,Wunderground v.1.15,2013-06-14 17:47:00,
2013-06-14 13:49:00,72.4,55.3,29.62,NNE,15,2.0,10.0,55,0.00,,,0.00,Wunderground v.1.15,2013-06-14 17:49:00,
2013-06-14 13:51:00,72.8,54.7,29.62,NNE,12,2.0,10.0,53,0.00,,,0.00,Wunderground v.1.15,2013-06-14 17:51:00,
2013-06-14 13:54:00,73.3,53.5,29.62,ENE,67,1.0,10.0,50,0.00,,,0.00,Wunderground v.1.15,2013-06-14 17:54:00,
2013-06-14 13:56:00,73.5,54.8,29.62,North,360,1.0,10.0,52,0.00,,,0.00,Wunderground v.1.15,2013-06-14 17:56:00,
2013-06-14 13:59:00,73.5,48.4,29.62,NE,47,2.0,10.0,41,0.00,,,0.00,Wunderground v.1.15,2013-06-14 17:59:00,
2013-06-14 14:00:00,73.3,49.4,29.62,NNE,17,2.0,2.0,43,0.00,,,0.00,Wunderground v.1.15,2013-06-14 18:00:00,
2013-06-14 14:05:00,73.7,51.0,29.62,North,355,3.0,12.0,45,0.00,,,0.00,Wunderground v.1.15,2013-06-14 18:05:00,
2013-06-14 14:06:00,73.7,51.0,29.62,North,5,3.0,12.0,45,0.00,,,0.00,Wunderground v.1.15,2013-06-14 18:06:00,
2013-06-14 14:07:00,73.8,49.9,29.62,NNE,26,3.0,12.0,43,0.00,,,0.00,Wunderground v.1.15,2013-06-14 18:07:00,
2013-06-14 14:11:00,74.1,50.8,29.62,NNE,15,2.0,12.0,44,0.00,,,0.00,Wunderground v.1.15,2013-06-14 18:11:00,
2013-06-14 14:12:00,74.2,51.5,29.62,NW,308,2.0,12.0,45,0.00,,,0.00,Wunderground v.1.15,2013-06-14 18:12:00,
2013-06-14 14:13:00,74.2,50.3,29.62,NW,309,2.0,12.0,43,0.00,,,0.00,Wunderground v.1.15,2013-06-14 18:13:00,
2013-06-14 14:16:00,74.6,51.9,29.62,North,355,2.0,12.0,45,0.00,,,0.00,Wunderground v.1.15,2013-06-14 18:16:00,
2013-06-14 14:17:00,74.6,50.0,29.62,NNW,344,2.0,12.0,42,0.00,,,0.00,Wunderground v.1.15,2013-06-14 18:17:00,
2013-06-14 14:19:00,74.6,49.3,29.62,NNE,23,2.0,12.0,41,0.00,,,0.00,Wunderground v.1.15,2013-06-14 18:19:00,
2013-06-14 14:20:00,74.7,50.1,29.62,NNE,22,2.0,2.0,42,0.00,,,0.00,Wunderground v.1.15,2013-06-14 18:20:00,
2013-06-14 14:22:00,74.8,50.8,29.62,ENE,60,2.0,12.0,43,0.00,,,0.00,Wunderground v.1.15,2013-06-14 18:22:00,
2013-06-14 14:26:00,75.0,49.7,29.62,NNE,31,1.0,12.0,41,0.00,,,0.00,Wunderground v.1.15,2013-06-14 18:26:00,
2013-06-14 14:27:00,75.0,48.4,29.61,NNE,32,1.0,12.0,39,0.00,,,0.00,Wunderground v.1.15,2013-06-14 18:27:00,
2013-06-14 14:28:00,75.1,48.4,29.62,NNE,27,1.0,12.0,39,0.00,,,0.00,Wunderground v.1.15,2013-06-14 18:28:00,
2013-06-14 14:29:00,75.2,50.5,29.62,NNE,25,0.0,12.0,42,0.00,,,0.00,Wunderground v.1.15,2013-06-14 18:29:00,
2013-06-14 14:33:00,75.5,50.8,29.61,NW,323,0.0,12.0,42,0.00,,,0.00,Wunderground v.1.15,2013-06-14 18:33:00,
2013-06-14 14:34:00,75.5,50.8,29.61,NNE,22,1.0,12.0,42,0.00,,,0.00,Wunderground v.1.15,2013-06-14 18:34:00,
2013-06-14 14:36:00,75.5,48.8,29.61,North,355,1.0,12.0,39,0.00,,,0.00,Wunderground v.1.15,2013-06-14 18:36:00,
2013-06-14 14:38:00,75.4,48.0,29.61,NNW,341,3.0,12.0,38,0.00,,,0.00,Wunderground v.1.15,2013-06-14 18:38:00,
2013-06-14 14:39:00,75.2,48.5,29.62,NNW,339,3.0,12.0,39,0.00,,,0.00,Wunderground v.1.15,2013-06-14 18:39:00,
2013-06-14 14:40:00,75.1,47.8,29.61,NNW,336,4.0,12.0,38,0.00,,,0.00,Wunderground v.1.15,2013-06-14 18:40:00,
2013-06-14 14:42:00,75.0,49.7,29.61,NNW,346,4.0,12.0,41,0.00,,,0.00,Wunderground v.1.15,2013-06-14 18:42:00,
2013-06-14 14:44:00,75.1,48.4,29.61,NNE,30,5.0,12.0,39,0.00,,,0.00,Wunderground v.1.15,2013-06-14 18:44:00,
2013-06-14 14:46:00,75.3,50.6,29.61,NNE,24,4.0,12.0,42,0.00,,,0.00,Wunderground v.1.15,2013-06-14 18:46:00,
2013-06-14 14:47:00,75.4,50.7,29.61,ENE,74,3.0,12.0,42,0.00,,,0.00,Wunderground v.1.15,2013-06-14 18:47:00,
2013-06-14 14:50:00,75.4,50.1,29.61,NNE,19,2.0,2.0,41,0.00,,,0.00,Wunderground v.1.15,2013-06-14 18:50:00,
2013-06-14 14:51:00,75.5,48.8,29.61,NNE,30,1.0,12.0,39,0.00,,,0.00,Wunderground v.1.15,2013-06-14 18:51:00,
2013-06-14 14:52:00,75.6,49.6,29.61,NNE,30,1.0,12.0,40,0.00,,,0.00,Wunderground v.1.15,2013-06-14 18:52:00,
2013-06-14 14:53:00,75.7,49.0,29.61,North,355,1.0,12.0,39,0.00,,,0.00,Wunderground v.1.15,2013-06-14 18:53:00,
2013-06-14 14:56:00,75.7,46.8,29.61,North,360,1.0,12.0,36,0.00,,,0.00,Wunderground v.1.15,2013-06-14 18:56:00,
2013-06-14 14:58:00,75.7,47.6,29.61,North,355,2.0,12.0,37,0.00,,,0.00,Wunderground v.1.15,2013-06-14 18:58:00,
2013-06-14 14:59:00,75.9,47.0,29.61,North,355,2.0,12.0,36,0.00,,,0.00,Wunderground v.1.15,2013-06-14 18:59:00,
2013-06-14 15:04:00,76.4,50.3,29.61,NE,42,1.0,12.0,40,0.00,,,0.00,Wunderground v.1.15,2013-06-14 19:04:00,
2013-06-14 15:05:00,76.4,50.3,29.61,NE,36,1.0,12.0,40,0.00,,,0.00,Wunderground v.1.15,2013-06-14 19:05:00,
2013-06-14 15:06:00,76.5,50.4,29.61,ENE,78,1.0,12.0,40,0.00,,,0.00,Wunderground v.1.15,2013-06-14 19:06:00,
2013-06-14 15:07:00,76.5,50.4,29.61,NE,44,1.0,12.0,40,0.00,,,0.00,Wunderground v.1.15,2013-06-14 19:07:00,
2013-06-14 15:11:00,76.4,48.2,29.61,North,11,2.0,2.0,37,0.00,,,0.00,Wunderground v.1.15,2013-06-14 19:11:00,
2013-06-14 15:12:00,76.4,47.5,29.61,North,11,2.0,12.0,36,0.00,,,0.00,Wunderground v.1.15,2013-06-14 19:12:00,
2013-06-14 15:13:00,76.4,46.7,29.61,NW,325,2.0,12.0,35,0.00,,,0.00,Wunderground v.1.15,2013-06-14 19:13:00,
2013-06-14 15:15:00,76.4,48.2,29.61,NNW,333,2.0,12.0,37,0.00,,,0.00,Wunderground v.1.15,2013-06-14 19:15:00,
2013-06-14 15:18:00,76.5,46.0,29.61,NNE,14,3.0,12.0,34,0.00,,,0.00,Wunderground v.1.15,2013-06-14 19:18:00,
2013-06-14 15:19:00,76.4,47.5,29.61,NNE,26,3.0,12.0,36,0.00,,,0.00,Wunderground v.1.15,2013-06-14 19:19:00,
2013-06-14 15:21:00,76.1,45.7,29.61,NNE,13,4.0,12.0,34,0.00,,,0.00,Wunderground v.1.15,2013-06-14 19:21:00,
2013-06-14 15:23:00,76.0,47.8,29.61,NNE,13,4.0,12.0,37,0.00,,,0.00,Wunderground v.1.15,2013-06-14 19:23:00,
2013-06-14 15:24:00,75.9,47.8,29.61,NNE,13,4.0,12.0,37,0.00,,,0.00,Wunderground v.1.15,2013-06-14 19:24:00,
2013-06-14 15:27:00,75.9,47.0,29.61,NNE,25,4.0,12.0,36,0.00,,,0.00,Wunderground v.1.15,2013-06-14 19:27:00,
2013-06-14 15:28:00,75.9,48.5,29.61,NE,34,4.0,12.0,38,0.00,,,0.00,Wunderground v.1.15,2013-06-14 19:28:00,
2013-06-14 15:29:00,75.8,47.7,29.61,North,350,4.0,12.0,37,0.00,,,0.00,Wunderground v.1.15,2013-06-14 19:29:00,
2013-06-14 15:31:00,75.8,46.9,29.61,NNE,17,4.0,12.0,36,0.00,,,0.00,Wunderground v.1.15,2013-06-14 19:31:00,
2013-06-14 15:34:00,75.9,49.2,29.61,NNE,17,3.0,12.0,39,0.00,,,0.00,Wunderground v.1.15,2013-06-14 19:34:00,
2013-06-14 15:37:00,76.2,48.7,29.60,NNE,17,2.0,12.0,38,0.00,,,0.00,Wunderground v.1.15,2013-06-14 19:37:00,
2013-06-14 15:38:00,76.3,48.8,29.61,NNE,12,2.0,12.0,38,0.00,,,0.00,Wunderground v.1.15,2013-06-14 19:38:00,
2013-06-14 15:41:00,76.5,50.4,29.60,North,360,1.0,6.0,40,0.00,,,0.00,Wunderground v.1.15,2013-06-14 19:41:00,
2013-06-14 15:44:00,76.5,49.7,29.60,NNE,18,2.0,12.0,39,0.00,,,0.00,Wunderground v.1.15,2013-06-14 19:44:00,
2013-06-14 15:45:00,76.5,50.4,29.60,NNE,13,2.0,12.0,40,0.00,,,0.00,Wunderground v.1.15,2013-06-14 19:45:00,
2013-06-14 15:46:00,76.6,49.8,29.60,NNE,15,2.0,12.0,39,0.00,,,0.00,Wunderground v.1.15,2013-06-14 19:46:00,
2013-06-14 15:48:00,76.7,49.9,29.60,NNE,19,2.0,12.0,39,0.00,,,0.00,Wunderground v.1.15,2013-06-14 19:48:00,
2013-06-14 15:52:00,76.9,50.1,29.60,ENE,59,1.0,12.0,39,0.00,,,0.00,Wunderground v.1.15,2013-06-14 19:52:00,
2013-06-14 15:53:00,77.0,49.4,29.60,North,11,1.0,12.0,38,0.00,,,0.00,Wunderground v.1.15,2013-06-14 19:53:00,
2013-06-14 15:56:00,77.1,49.5,29.60,NNE,13,1.0,12.0,38,0.00,,,0.00,Wunderground v.1.15,2013-06-14 19:56:00,
2013-06-14 15:58:00,77.2,49.6,29.60,NNE,13,1.0,12.0,38,0.00,,,0.00,Wunderground v.1.15,2013-06-14 19:58:00,
2013-06-14 15:59:00,77.3,49.0,29.60,NW,321,1.0,12.0,37,0.00,,,0.00,Wunderground v.1.15,2013-06-14 19:59:00,
2013-06-14 16:00:00,77.2,48.9,29.60,NW,326,1.0,8.0,37,0.00,,,0.00,Wunderground v.1.15,2013-06-14 20:00:00,
2013-06-14 16:02:00,77.1,48.8,29.60,North,11,2.0,8.0,37,0.00,,,0.00,Wunderground v.1.15,2013-06-14 20:02:00,
2013-06-14 16:04:00,77.0,49.4,29.60,North,351,2.0,8.0,38,0.00,,,0.00,Wunderground v.1.15,2013-06-14 20:04:00,
2013-06-14 16:06:00,77.1,50.9,29.60,NNW,346,2.0,8.0,40,0.00,,,0.00,Wunderground v.1.15,2013-06-14 20:06:00,
2013-06-14 16:08:00,77.0,49.4,29.60,NNW,339,3.0,8.0,38,0.00,,,0.00,Wunderground v.1.15,2013-06-14 20:08:00,
2013-06-14 16:09:00,77.0,48.7,29.60,NNW,327,3.0,8.0,37,0.00,,,0.00,Wunderground v.1.15,2013-06-14 20:09:00,
2013-06-14 16:10:00,76.9,48.6,29.60,NNW,339,3.0,8.0,37,0.00,,,0.00,Wunderground v.1.15,2013-06-14 20:10:00,
2013-06-14 16:11:00,76.9,49.4,29.60,North,360,3.0,8.0,38,0.00,,,0.00,Wunderground v.1.15,2013-06-14 20:11:00,
2013-06-14 16:14:00,77.1,49.5,29.60,NNW,342,3.0,8.0,38,0.00,,,0.00,Wunderground v.1.15,2013-06-14 20:14:00,
2013-06-14 16:16:00,77.1,48.8,29.60,NNW,337,3.0,8.0,37,0.00,,,0.00,Wunderground v.1.15,2013-06-14 20:16:00,
2013-06-14 16:17:00,77.1,48.8,29.60,NNW,332,3.0,8.0,37,0.00,,,0.00,Wunderground v.1.15,2013-06-14 20:17:00,
2013-06-14 16:18:00,77.0,49.4,29.60,North,350,3.0,8.0,38,0.00,,,0.00,Wunderground v.1.15,2013-06-14 20:18:00,
2013-06-14 16:22:00,76.7,49.2,29.60,NNW,332,3.0,8.0,38,0.00,,,0.00,Wunderground v.1.15,2013-06-14 20:22:00,
2013-06-14 16:23:00,76.7,50.6,29.60,NNW,338,3.0,8.0,40,0.00,,,0.00,Wunderground v.1.15,2013-06-14 20:23:00,
2013-06-14 16:24:00,76.7,50.6,29.60,NNW,332,3.0,8.0,40,0.00,,,0.00,Wunderground v.1.15,2013-06-14 20:24:00,
2013-06-14 16:28:00,76.5,49.7,29.60,North,10,4.0,8.0,39,0.00,,,0.00,Wunderground v.1.15,2013-06-14 20:28:00,
2013-06-14 16:29:00,76.4,51.0,29.60,NNW,348,4.0,8.0,41,0.00,,,0.00,Wunderground v.1.15,2013-06-14 20:29:00,
2013-06-14 16:30:00,76.4,50.3,29.60,NNW,332,4.0,8.0,40,0.00,,,0.00,Wunderground v.1.15,2013-06-14 20:30:00,
2013-06-14 16:34:00,76.7,51.9,29.60,NNW,333,3.0,8.0,42,0.00,,,0.00,Wunderground v.1.15,2013-06-14 20:34:00,
2013-06-14 16:35:00,76.8,52.0,29.60,NNE,22,3.0,8.0,42,0.00,,,0.00,Wunderground v.1.15,2013-06-14 20:35:00,
2013-06-14 16:36:00,76.9,51.4,29.60,North,9,3.0,8.0,41,0.00,,,0.00,Wunderground v.1.15,2013-06-14 20:36:00,
2013-06-14 16:37:00,77.0,50.1,29.60,North,9,2.0,8.0,39,0.00,,,0.00,Wunderground v.1.15,2013-06-14 20:37:00,
2013-06-14 16:40:00,77.1,50.2,29.60,North,5,1.0,8.0,39,0.00,,,0.00,Wunderground v.1.15,2013-06-14 20:40:00,
2013-06-14 16:44:00,77.2,51.7,29.60,North,351,2.0,8.0,41,0.00,,,0.00,Wunderground v.1.15,2013-06-14 20:44:00,
2013-06-14 16:45:00,77.2,51.0,29.60,North,351,2.0,8.0,40,0.00,,,0.00,Wunderground v.1.15,2013-06-14 20:45:00,
2013-06-14 16:47:00,77.1,50.9,29.60,NW,319,2.0,8.0,40,0.00,,,0.00,Wunderground v.1.15,2013-06-14 20:47:00,
2013-06-14 16:48:00,77.1,51.6,29.60,NNW,347,3.0,8.0,41,0.00,,,0.00,Wunderground v.1.15,2013-06-14 20:48:00,
2013-06-14 16:50:00,76.9,50.1,29.60,NNW,330,3.0,8.0,39,0.00,,,0.00,Wunderground v.1.15,2013-06-14 20:50:00,
2013-06-14 16:51:00,76.8,50.6,29.60,NNW,344,3.0,8.0,40,0.00,,,0.00,Wunderground v.1.15,2013-06-14 20:51:00,
2013-06-14 16:53:00,76.6,49.8,29.60,NNW,332,4.0,8.0,39,0.00,,,0.00,Wunderground v.1.15,2013-06-14 20:53:00,
2013-06-14 16:54:00,76.4,50.3,29.60,NW,326,4.0,8.0,40,0.00,,,0.00,Wunderground v.1.15,2013-06-14 20:54:00,
2013-06-14 16:55:00,76.3,50.2,29.60,NNW,340,5.0,8.0,40,0.00,,,0.00,Wunderground v.1.15,2013-06-14 20:55:00,
2013-06-14 16:58:00,76.1,50.7,29.60,North,355,4.0,8.0,41,0.00,,,0.00,Wunderground v.1.15,2013-06-14 20:58:00,
2013-06-14 17:00:00,76.2,52.1,29.60,NW,323,4.0,4.0,43,0.00,,,0.00,Wunderground v.1.15,2013-06-14 21:00:00,
2013-06-14 17:02:00,76.3,50.9,29.60,NNW,341,3.0,9.0,41,0.00,,,0.00,Wunderground v.1.15,2013-06-14 21:02:00,
2013-06-14 17:03:00,76.3,52.2,29.60,NNW,341,2.0,9.0,43,0.00,,,0.00,Wunderground v.1.15,2013-06-14 21:03:00,
2013-06-14 17:05:00,76.5,52.3,29.60,NNW,341,1.0,9.0,43,0.00,,,0.00,Wunderground v.1.15,2013-06-14 21:05:00,
2013-06-14 17:08:00,76.8,51.3,29.60,NNW,341,1.0,9.0,41,0.00,,,0.00,Wunderground v.1.15,2013-06-14 21:08:00,
2013-06-14 17:11:00,76.9,51.4,29.60,NNW,331,1.0,9.0,41,0.00,,,0.00,Wunderground v.1.15,2013-06-14 21:11:00,
2013-06-14 17:12:00,76.9,52.1,29.60,NW,315,1.0,9.0,42,0.00,,,0.00,Wunderground v.1.15,2013-06-14 21:12:00,
2013-06-14 17:15:00,76.8,51.3,29.60,West,273,1.0,9.0,41,0.00,,,0.00,Wunderground v.1.15,2013-06-14 21:15:00,
2013-06-14 17:17:00,76.5,50.4,29.60,North,355,2.0,9.0,40,0.00,,,0.00,Wunderground v.1.15,2013-06-14 21:17:00,
2013-06-14 17:18:00,76.4,51.0,29.60,NNW,338,2.0,9.0,41,0.00,,,0.00,Wunderground v.1.15,2013-06-14 21:18:00,
2013-06-14 17:20:00,76.3,50.9,29.60,NNW,327,2.0,9.0,41,0.00,,,0.00,Wunderground v.1.15,2013-06-14 21:20:00,
2013-06-14 17:25:00,76.1,52.0,29.60,North,360,3.0,9.0,43,0.00,,,0.00,Wunderground v.1.15,2013-06-14 21:25:00,
2013-06-14 17:26:00,76.1,50.7,29.60,North,360,2.0,9.0,41,0.00,,,0.00,Wunderground v.1.15,2013-06-14 21:26:00,
2013-06-14 17:28:00,76.2,52.7,29.60,North,360,2.0,9.0,44,0.00,,,0.00,Wunderground v.1.15,2013-06-14 21:28:00,
2013-06-14 17:29:00,76.2,52.1,29.60,NNE,15,2.0,9.0,43,0.00,,,0.00,Wunderground v.1.15,2013-06-14 21:29:00,
2013-06-14 17:30:00,76.2,52.7,29.60,North,349,2.0,9.0,44,0.00,,,0.00,Wunderground v.1.15,2013-06-14 21:30:00,
2013-06-14 17:33:00,76.2,51.4,29.60,NNW,345,2.0,9.0,42,0.00,,,0.00,Wunderground v.1.15,2013-06-14 21:33:00,
2013-06-14 17:34:00,76.2,52.7,29.60,WNW,290,2.0,9.0,44,0.00,,,0.00,Wunderground v.1.15,2013-06-14 21:34:00,
2013-06-14 17:35:00,76.1,52.0,29.60,SW,233,3.0,9.0,43,0.00,,,0.00,Wunderground v.1.15,2013-06-14 21:35:00,
2013-06-14 17:37:00,75.8,52.3,29.61,WNW,282,3.0,9.0,44,0.00,,,0.00,Wunderground v.1.15,2013-06-14 21:37:00,
2013-06-14 17:38:00,75.7,52.2,29.61,NNW,345,4.0,9.0,44,0.00,,,0.00,Wunderground v.1.15,2013-06-14 21:38:00,
2013-06-14 17:40:00,75.5,52.1,29.61,West,275,4.0,4.0,44,0.00,,,0.00,Wunderground v.1.15,2013-06-14 21:40:00,
2013-06-14 17:43:00,75.3,53.1,29.61,NW,325,4.0,9.0,46,0.00,,,0.00,Wunderground v.1.15,2013-06-14 21:43:00,
2013-06-14 17:44:00,75.2,53.0,29.61,NW,324,4.0,9.0,46,0.00,,,0.00,Wunderground v.1.15,2013-06-14 21:44:00,
2013-06-14 17:46:00,75.2,53.6,29.61,NW,323,3.0,10.0,47,0.00,,,0.00,Wunderground v.1.15,2013-06-14 21:46:00,
2013-06-14 17:47:00,75.0,53.4,29.61,NW,304,4.0,10.0,47,0.00,,,0.00,Wunderground v.1.15,2013-06-14 21:47:00,
2013-06-14 17:50:00,74.6,54.2,29.61,NNW,344,3.0,9.0,49,0.00,,,0.00,Wunderground v.1.15,2013-06-14 21:50:00,
2013-06-14 17:52:00,74.1,53.7,29.61,NW,315,3.0,9.0,49,0.00,,,0.00,Wunderground v.1.15,2013-06-14 21:52:00,
2013-06-14 17:54:00,73.6,53.8,29.61,WNW,290,3.0,9.0,50,0.00,,,0.00,Wunderground v.1.15,2013-06-14 21:54:00,
2013-06-14 17:55:00,73.5,53.7,29.61,NW,323,3.0,9.0,50,0.00,,,0.00,Wunderground v.1.15,2013-06-14 21:55:00,
2013-06-14 17:59:00,73.3,53.5,29.61,NW,316,3.0,9.0,50,0.00,,,0.00,Wunderground v.1.15,2013-06-14 21:59:00,
2013-06-14 18:00:00,73.3,54.1,29.61,North,351,2.0,12.0,51,0.00,,,0.00,Wunderground v.1.15,2013-06-14 22:00:00,
2013-06-14 18:01:00,73.3,53.5,29.61,North,349,2.0,12.0,50,0.00,,,0.00,Wunderground v.1.15,2013-06-14 22:01:00,
2013-06-14 18:06:00,72.8,53.6,29.61,WNW,292,1.0,12.0,51,0.00,,,0.00,Wunderground v.1.15,2013-06-14 22:06:00,
2013-06-14 18:07:00,72.7,54.1,29.61,WNW,302,1.0,12.0,52,0.00,,,0.00,Wunderground v.1.15,2013-06-14 22:07:00,
2013-06-14 18:08:00,72.6,54.0,29.61,WNW,302,1.0,12.0,52,0.00,,,0.00,Wunderground v.1.15,2013-06-14 22:08:00,
2013-06-14 18:09:00,72.5,53.9,29.61,WNW,301,1.0,12.0,52,0.00,,,0.00,Wunderground v.1.15,2013-06-14 22:09:00,
2013-06-14 18:14:00,72.0,53.9,29.61,West,279,1.0,12.0,53,0.00,,,0.00,Wunderground v.1.15,2013-06-14 22:14:00,
2013-06-14 18:15:00,72.0,54.4,29.61,West,279,1.0,12.0,54,0.00,,,0.00,Wunderground v.1.15,2013-06-14 22:15:00,
2013-06-14 18:17:00,71.8,53.7,29.61,WNW,284,1.0,12.0,53,0.00,,,0.00,Wunderground v.1.15,2013-06-14 22:17:00,
2013-06-14 18:20:00,71.7,54.2,29.61,WNW,284,1.0,1.0,54,0.00,,,0.00,Wunderground v.1.15,2013-06-14 22:20:00,
2013-06-14 18:22:00,71.8,54.8,29.62,NNW,344,1.0,12.0,55,0.00,,,0.00,Wunderground v.1.15,2013-06-14 22:22:00,
2013-06-14 18:23:00,71.8,54.3,29.62,NNW,342,1.0,12.0,54,0.00,,,0.00,Wunderground v.1.15,2013-06-14 22:23:00,
2013-06-14 18:25:00,71.8,54.8,29.62,NNW,342,1.0,12.0,55,0.00,,,0.00,Wunderground v.1.15,2013-06-14 22:25:00,
2013-06-14 18:27:00,71.9,54.9,29.62,NNW,342,1.0,12.0,55,0.00,,,0.00,Wunderground v.1.15,2013-06-14 22:27:00,
2013-06-14 18:31:00,72.2,54.6,29.62,NNW,342,0.0,12.0,54,0.00,,,0.00,Wunderground v.1.15,2013-06-14 22:31:00,
2013-06-14 18:33:00,72.4,54.8,29.62,NNW,344,0.0,12.0,54,0.00,,,0.00,Wunderground v.1.15,2013-06-14 22:33:00,
2013-06-14 18:34:00,72.5,54.9,29.62,NNW,344,0.0,12.0,54,0.00,,,0.00,Wunderground v.1.15,2013-06-14 22:34:00,
2013-06-14 18:35:00,72.6,54.5,29.62,NNW,344,0.0,12.0,53,0.00,,,0.00,Wunderground v.1.15,2013-06-14 22:35:00,
2013-06-14 18:38:00,72.8,55.2,29.62,NNW,344,0.0,12.0,54,0.00,,,0.00,Wunderground v.1.15,2013-06-14 22:38:00,
2013-06-14 18:40:00,73.0,54.9,29.62,NNW,344,0.0,12.0,53,0.00,,,0.00,Wunderground v.1.15,2013-06-14 22:40:00,
2013-06-14 18:41:00,73.0,54.9,29.62,NNW,344,0.0,12.0,53,0.00,,,0.00,Wunderground v.1.15,2013-06-14 22:41:00,
2013-06-14 18:44:00,73.2,56.1,29.62,NNW,344,0.0,12.0,55,0.00,,,0.00,Wunderground v.1.15,2013-06-14 22:44:00,
2013-06-14 18:46:00,73.3,56.2,29.62,NNW,344,0.0,12.0,55,0.00,,,0.00,Wunderground v.1.15,2013-06-14 22:46:00,
2013-06-14 18:47:00,73.3,56.7,29.62,NNW,344,0.0,12.0,56,0.00,,,0.00,Wunderground v.1.15,2013-06-14 22:47:00,
2013-06-14 18:49:00,73.3,56.7,29.62,NNW,344,0.0,12.0,56,0.00,,,0.00,Wunderground v.1.15,2013-06-14 22:49:00,
2013-06-14 18:51:00,73.3,56.7,29.62,NNW,344,0.0,12.0,56,0.00,,,0.00,Wunderground v.1.15,2013-06-14 22:51:00,
2013-06-14 18:53:00,73.2,56.1,29.62,NNW,344,0.0,12.0,55,0.00,,,0.00,Wunderground v.1.15,2013-06-14 22:53:00,
2013-06-14 18:55:00,73.2,57.1,29.62,NNW,344,0.0,12.0,57,0.00,,,0.00,Wunderground v.1.15,2013-06-14 22:55:00,
2013-06-14 18:56:00,73.1,57.0,29.62,NNW,344,0.0,12.0,57,0.00,,,0.00,Wunderground v.1.15,2013-06-14 22:56:00,
2013-06-14 18:58:00,73.1,56.5,29.62,NNW,344,0.0,12.0,56,0.00,,,0.00,Wunderground v.1.15,2013-06-14 22:58:00,
2013-06-14 19:00:00,73.1,56.5,29.62,NNW,344,0.0,3.0,56,0.00,,,0.00,Wunderground v.1.15,2013-06-14 23:00:00,
2013-06-14 19:02:00,73.1,56.5,29.62,NNW,344,0.0,3.0,56,0.00,,,0.00,Wunderground v.1.15,2013-06-14 23:02:00,
2013-06-14 19:06:00,73.3,57.1,29.63,NNW,344,0.0,3.0,57,0.00,,,0.00,Wunderground v.1.15,2013-06-14 23:06:00,
2013-06-14 19:08:00,73.4,57.2,29.63,NNW,344,0.0,3.0,57,0.00,,,0.00,Wunderground v.1.15,2013-06-14 23:08:00,
2013-06-14 19:10:00,73.4,57.2,29.63,NNW,344,0.0,3.0,57,0.00,,,0.00,Wunderground v.1.15,2013-06-14 23:10:00,
2013-06-14 19:11:00,73.4,57.2,29.63,NNW,344,0.0,3.0,57,0.00,,,0.00,Wunderground v.1.15,2013-06-14 23:11:00,
2013-06-14 19:15:00,73.5,57.8,29.63,NNW,344,0.0,3.0,58,0.00,,,0.00,Wunderground v.1.15,2013-06-14 23:15:00,
2013-06-14 19:18:00,73.4,57.7,29.63,North,360,0.0,3.0,58,0.00,,,0.00,Wunderground v.1.15,2013-06-14 23:18:00,
2013-06-14 19:19:00,73.5,58.3,29.63,North,360,0.0,3.0,59,0.00,,,0.00,Wunderground v.1.15,2013-06-14 23:19:00,
2013-06-14 19:21:00,73.3,57.1,29.63,North,360,0.0,3.0,57,0.00,,,0.00,Wunderground v.1.15,2013-06-14 23:21:00,
2013-06-14 19:24:00,73.1,56.5,29.63,SE,136,0.0,4.0,56,0.00,,,0.00,Wunderground v.1.15,2013-06-14 23:24:00,
2013-06-14 19:27:00,72.6,57.0,29.63,SE,136,1.0,4.0,58,0.00,,,0.00,Wunderground v.1.15,2013-06-14 23:27:00,
2013-06-14 19:29:00,72.4,57.3,29.63,SE,136,1.0,4.0,59,0.00,,,0.00,Wunderground v.1.15,2013-06-14 23:29:00,
2013-06-14 19:30:00,72.4,57.3,29.63,SE,136,1.0,1.0,59,0.00,,,0.00,Wunderground v.1.15,2013-06-14 23:30:00,
2013-06-14 19:34:00,72.3,56.7,29.63,SE,136,0.0,3.0,58,0.00,,,0.00,Wunderground v.1.15,2013-06-14 23:34:00,
2013-06-14 19:37:00,72.0,56.9,29.63,SE,136,0.0,3.0,59,0.00,,,0.00,Wunderground v.1.15,2013-06-14 23:37:00,
2013-06-14 19:38:00,71.8,56.7,29.63,SE,136,0.0,3.0,59,0.00,,,0.00,Wunderground v.1.15,2013-06-14 23:38:00,
2013-06-14 19:40:00,71.5,57.3,29.63,SE,136,0.0,3.0,61,0.00,,,0.00,Wunderground v.1.15,2013-06-14 23:40:00,
2013-06-14 19:44:00,71.3,57.2,29.63,SE,136,0.0,3.0,61,0.00,,,0.00,Wunderground v.1.15,2013-06-14 23:44:00,
2013-06-14 19:45:00,71.2,55.2,29.63,SE,134,0.0,3.0,57,0.00,,,0.00,Wunderground v.1.15,2013-06-14 23:45:00,
2013-06-14 19:48:00,71.1,55.6,29.64,NE,38,0.0,3.0,58,0.00,,,0.00,Wunderground v.1.15,2013-06-14 23:48:00,
2013-06-14 19:49:00,71.1,57.0,29.64,NE,38,0.0,3.0,61,0.00,,,0.00,Wunderground v.1.15,2013-06-14 23:49:00,
2013-06-14 19:50:00,71.0,57.3,29.64,NE,38,0.0,3.0,62,0.00,,,0.00,Wunderground v.1.15,2013-06-14 23:50:00,
2013-06-14 19:51:00,70.9,57.2,29.64,NE,38,0.0,3.0,62,0.00,,,0.00,Wunderground v.1.15,2013-06-14 23:51:00,
2013-06-14 19:53:00,70.8,57.1,29.63,NE,38,0.0,3.0,62,0.00,,,0.00,Wunderground v.1.15,2013-06-14 23:53:00,
2013-06-14 19:56:00,70.5,57.3,29.64,NE,38,0.0,3.0,63,0.00,,,0.00,Wunderground v.1.15,2013-06-14 23:56:00,
2013-06-14 19:57:00,70.4,57.2,29.64,NE,38,0.0,3.0,63,0.00,,,0.00,Wunderground v.1.15,2013-06-14 23:57:00,
2013-06-14 19:59:00,70.2,56.6,29.64,NE,38,0.0,3.0,62,0.00,,,0.00,Wunderground v.1.15,2013-06-14 23:59:00,
2013-06-14 20:00:00,70.0,56.8,29.64,NE,38,0.0,4.0,63,0.00,,,0.00,Wunderground v.1.15,2013-06-15 00:00:00,
2013-06-14 20:02:00,69.9,56.3,29.64,NE,38,0.0,4.0,62,0.00,,,0.00,Wunderground v.1.15,2013-06-15 00:02:00,
2013-06-14 20:04:00,69.8,55.3,29.65,NE,38,0.0,4.0,60,0.00,,,0.00,Wunderground v.1.15,2013-06-15 00:04:00,
2013-06-14 20:06:00,69.7,55.2,29.64,NE,38,0.0,4.0,60,0.00,,,0.00,Wunderground v.1.15,2013-06-15 00:06:00,
2013-06-14 20:10:00,69.6,56.4,29.65,NE,38,0.0,4.0,63,0.00,,,0.00,Wunderground v.1.15,2013-06-15 00:10:00,
2013-06-14 20:11:00,69.6,56.9,29.65,NE,38,0.0,4.0,64,0.00,,,0.00,Wunderground v.1.15,2013-06-15 00:11:00,
2013-06-14 20:13:00,69.5,57.2,29.65,NE,38,0.0,4.0,65,0.00,,,0.00,Wunderground v.1.15,2013-06-15 00:13:00,
2013-06-14 20:15:00,69.5,56.8,29.65,NE,38,0.0,4.0,64,0.00,,,0.00,Wunderground v.1.15,2013-06-15 00:15:00,
2013-06-14 20:17:00,69.4,56.7,29.65,NE,38,0.0,4.0,64,0.00,,,0.00,Wunderground v.1.15,2013-06-15 00:17:00,
2013-06-14 20:18:00,69.2,56.1,29.65,NE,38,0.0,4.0,63,0.00,,,0.00,Wunderground v.1.15,2013-06-15 00:18:00,
2013-06-14 20:21:00,69.0,56.7,29.65,NE,38,0.0,4.0,65,0.00,,,0.00,Wunderground v.1.15,2013-06-15 00:21:00,
2013-06-14 20:22:00,69.0,57.2,29.65,NE,38,0.0,4.0,66,0.00,,,0.00,Wunderground v.1.15,2013-06-15 00:22:00,
2013-06-14 20:23:00,68.9,56.6,29.65,NE,38,0.0,4.0,65,0.00,,,0.00,Wunderground v.1.15,2013-06-15 00:23:00,
2013-06-14 20:24:00,68.9,57.1,29.65,NE,38,0.0,4.0,66,0.00,,,0.00,Wunderground v.1.15,2013-06-15 00:24:00,
2013-06-14 20:25:00,68.8,56.6,29.65,NE,38,0.0,4.0,65,0.00,,,0.00,Wunderground v.1.15,2013-06-15 00:25:00,
2013-06-14 20:28:00,68.6,56.8,29.65,NE,38,0.0,4.0,66,0.00,,,0.00,Wunderground v.1.15,2013-06-15 00:28:00,
2013-06-14 20:30:00,68.5,56.7,29.65,NE,38,0.0,4.0,66,0.00,,,0.00,Wunderground v.1.15,2013-06-15 00:30:00,
2013-06-14 20:33:00,68.3,57.3,29.66,NE,38,0.0,4.0,68,0.00,,,0.00,Wunderground v.1.15,2013-06-15 00:33:00,
2013-06-14 20:34:00,68.1,57.1,29.65,NE,38,0.0,4.0,68,0.00,,,0.00,Wunderground v.1.15,2013-06-15 00:34:00,
2013-06-14 20:35:00,67.9,56.9,29.66,NE,38,0.0,4.0,68,0.00,,,0.00,Wunderground v.1.15,2013-06-15 00:35:00,
2013-06-14 20:36:00,67.8,56.9,29.66,NE,38,0.0,4.0,68,0.00,,,0.00,Wunderground v.1.15,2013-06-15 00:36:00,
2013-06-14 20:40:00,67.1,56.6,29.66,NE,38,0.0,4.0,69,0.00,,,0.00,Wunderground v.1.15,2013-06-15 00:40:00,
2013-06-14 20:41:00,67.0,56.1,29.66,NE,38,0.0,4.0,68,0.00,,,0.00,Wunderground v.1.15,2013-06-15 00:41:00,
2013-06-14 20:42:00,66.9,56.4,29.66,NE,38,0.0,4.0,69,0.00,,,0.00,Wunderground v.1.15,2013-06-15 00:42:00,
2013-06-14 20:44:00,66.7,56.2,29.66,NE,38,0.0,4.0,69,0.00,,,0.00,Wunderground v.1.15,2013-06-15 00:44:00,
2013-06-14 20:48:00,66.2,56.1,29.66,NE,41,0.0,4.0,70,0.00,,,0.00,Wunderground v.1.15,2013-06-15 00:48:00,
2013-06-14 20:49:00,66.1,56.0,29.66,NE,41,0.0,4.0,70,0.00,,,0.00,Wunderground v.1.15,2013-06-15 00:49:00,
2013-06-14 20:51:00,65.9,55.8,29.66,NE,41,0.0,4.0,70,0.00,,,0.00,Wunderground v.1.15,2013-06-15 00:51:00,
2013-06-14 20:53:00,65.9,56.2,29.66,NE,41,0.0,4.0,71,0.00,,,0.00,Wunderground v.1.15,2013-06-15 00:53:00,
2013-06-14 20:55:00,65.8,56.5,29.66,NE,41,0.0,4.0,72,0.00,,,0.00,Wunderground v.1.15,2013-06-15 00:55:00,
2013-06-14 20:58:00,65.7,56.8,29.66,SE,144,0.0,4.0,73,0.00,,,0.00,Wunderground v.1.15,2013-06-15 00:58:00,
2013-06-14 20:59:00,65.6,56.7,29.66,SE,144,1.0,4.0,73,0.00,,,0.00,Wunderground v.1.15,2013-06-15 00:59:00,
2013-06-14 21:03:00,65.4,57.3,29.66,SE,144,1.0,1.0,75,0.00,,,0.00,Wunderground v.1.15,2013-06-15 01:03:00,
2013-06-14 21:04:00,65.3,57.9,29.66,SE,144,1.0,1.0,77,0.00,,,0.00,Wunderground v.1.15,2013-06-15 01:04:00,
2013-06-14 21:07:00,65.0,57.2,29.66,SE,144,1.0,2.0,76,0.00,,,0.00,Wunderground v.1.15,2013-06-15 01:07:00,
2013-06-14 21:09:00,64.9,57.2,29.66,SE,144,0.0,2.0,76,0.00,,,0.00,Wunderground v.1.15,2013-06-15 01:09:00,
2013-06-14 21:10:00,64.9,57.2,29.66,SE,144,0.0,1.0,76,0.00,,,0.00,Wunderground v.1.15,2013-06-15 01:10:00,
2013-06-14 21:13:00,64.7,57.0,29.66,SE,144,0.0,1.0,76,0.00,,,0.00,Wunderground v.1.15,2013-06-15 01:13:00,
2013-06-14 21:15:00,64.7,57.0,29.66,SE,144,0.0,1.0,76,0.00,,,0.00,Wunderground v.1.15,2013-06-15 01:15:00,
2013-06-14 21:16:00,64.6,56.9,29.66,SE,144,0.0,1.0,76,0.00,,,0.00,Wunderground v.1.15,2013-06-15 01:16:00,
2013-06-14 21:18:00,64.5,56.8,29.66,SE,144,0.0,1.0,76,0.00,,,0.00,Wunderground v.1.15,2013-06-15 01:18:00,
2013-06-14 21:19:00,64.5,56.8,29.67,SE,144,0.0,1.0,76,0.00,,,0.00,Wunderground v.1.15,2013-06-15 01:19:00,
2013-06-14 21:21:00,64.4,56.3,29.67,SE,144,0.0,1.0,75,0.00,,,0.00,Wunderground v.1.15,2013-06-15 01:21:00,
2013-06-14 21:24:00,64.3,56.2,29.67,SE,143,0.0,1.0,75,0.00,,,0.00,Wunderground v.1.15,2013-06-15 01:24:00,
2013-06-14 21:25:00,64.3,56.2,29.67,SE,143,0.0,1.0,75,0.00,,,0.00,Wunderground v.1.15,2013-06-15 01:25:00,
2013-06-14 21:30:00,64.1,56.0,29.68,SE,143,0.0,1.0,75,0.00,,,0.00,Wunderground v.1.15,2013-06-15 01:30:00,
2013-06-14 21:31:00,64.0,55.9,29.68,SE,143,0.0,1.0,75,0.00,,,0.00,Wunderground v.1.15,2013-06-15 01:31:00,
2013-06-14 21:33:00,64.0,56.3,29.68,SE,143,0.0,1.0,76,0.00,,,0.00,Wunderground v.1.15,2013-06-15 01:33:00,
2013-06-14 21:36:00,63.8,56.1,29.68,SE,143,0.0,1.0,76,0.00,,,0.00,Wunderground v.1.15,2013-06-15 01:36:00,
2013-06-14 21:38:00,63.7,56.0,29.68,SE,143,0.0,1.0,76,0.00,,,0.00,Wunderground v.1.15,2013-06-15 01:38:00,
2013-06-14 21:39:00,63.6,55.9,29.68,SE,143,0.0,1.0,76,0.00,,,0.00,Wunderground v.1.15,2013-06-15 01:39:00,
2013-06-14 21:43:00,63.5,56.2,29.68,SE,143,0.0,1.0,77,0.00,,,0.00,Wunderground v.1.15,2013-06-15 01:43:00,
2013-06-14 21:44:00,63.4,56.1,29.68,SE,143,0.0,1.0,77,0.00,,,0.00,Wunderground v.1.15,2013-06-15 01:44:00,
2013-06-14 21:48:00,63.0,56.0,29.68,SE,143,0.0,1.0,78,0.00,,,0.00,Wunderground v.1.15,2013-06-15 01:48:00,
2013-06-14 21:49:00,62.9,55.9,29.68,SE,143,0.0,1.0,78,0.00,,,0.00,Wunderground v.1.15,2013-06-15 01:49:00,
2013-06-14 21:50:00,62.9,55.9,29.68,SE,143,0.0,1.0,78,0.00,,,0.00,Wunderground v.1.15,2013-06-15 01:50:00,
2013-06-14 21:52:00,62.7,55.7,29.69,SE,143,0.0,1.0,78,0.00,,,0.00,Wunderground v.1.15,2013-06-15 01:52:00,
2013-06-14 21:55:00,62.6,55.6,29.69,SE,143,0.0,1.0,78,0.00,,,0.00,Wunderground v.1.15,2013-06-15 01:55:00,
2013-06-14 21:57:00,62.3,55.4,29.69,SE,143,0.0,1.0,78,0.00,,,0.00,Wunderground v.1.15,2013-06-15 01:57:00,
2013-06-14 21:58:00,62.2,55.3,29.69,SE,143,0.0,1.0,78,0.00,,,0.00,Wunderground v.1.15,2013-06-15 01:58:00,
2013-06-14 22:00:00,62.1,55.2,29.69,SE,143,0.0,0.0,78,0.00,,,0.00,Wunderground v.1.15,2013-06-15 02:00:00,
2013-06-14 22:01:00,62.1,55.2,29.69,SE,143,0.0,0.0,78,0.00,,,0.00,Wunderground v.1.15,2013-06-15 02:01:00,
2013-06-14 22:03:00,62.0,55.4,29.69,SE,143,0.0,0.0,79,0.00,,,0.00,Wunderground v.1.15,2013-06-15 02:03:00,
2013-06-14 22:06:00,61.8,55.9,29.69,SE,143,0.0,0.0,81,0.00,,,0.00,Wunderground v.1.15,2013-06-15 02:06:00,
2013-06-14 22:07:00,61.8,55.9,29.69,SE,143,0.0,0.0,81,0.00,,,0.00,Wunderground v.1.15,2013-06-15 02:07:00,
2013-06-14 22:11:00,61.6,56.0,29.69,SE,143,0.0,0.0,82,0.00,,,0.00,Wunderground v.1.15,2013-06-15 02:11:00,
2013-06-14 22:13:00,61.5,56.3,29.69,SE,143,0.0,0.0,83,0.00,,,0.00,Wunderground v.1.15,2013-06-15 02:13:00,
2013-06-14 22:14:00,61.4,56.5,29.69,SE,143,0.0,0.0,84,0.00,,,0.00,Wunderground v.1.15,2013-06-15 02:14:00,
2013-06-14 22:15:00,61.4,56.5,29.69,SE,143,0.0,0.0,84,0.00,,,0.00,Wunderground v.1.15,2013-06-15 02:15:00,
2013-06-14 22:19:00,61.3,56.4,29.69,SE,143,0.0,0.0,84,0.00,,,0.00,Wunderground v.1.15,2013-06-15 02:19:00,
2013-06-14 22:20:00,61.2,56.3,29.69,SE,143,0.0,0.0,84,0.00,,,0.00,Wunderground v.1.15,2013-06-15 02:20:00,
2013-06-14 22:21:00,61.1,56.2,29.69,SE,143,0.0,0.0,84,0.00,,,0.00,Wunderground v.1.15,2013-06-15 02:21:00,
2013-06-14 22:25:00,60.7,55.8,29.69,SE,143,0.0,0.0,84,0.00,,,0.00,Wunderground v.1.15,2013-06-15 02:25:00,
2013-06-14 22:28:00,60.4,55.5,29.69,SE,143,0.0,0.0,84,0.00,,,0.00,Wunderground v.1.15,2013-06-15 02:28:00,
2013-06-14 22:30:00,60.3,55.4,29.69,SE,143,0.0,0.0,84,0.00,,,0.00,Wunderground v.1.15,2013-06-15 02:30:00,
2013-06-14 22:31:00,60.3,55.4,29.69,SE,143,0.0,0.0,84,0.00,,,0.00,Wunderground v.1.15,2013-06-15 02:31:00,
2013-06-14 22:32:00,60.2,55.0,29.69,SE,143,0.0,0.0,83,0.00,,,0.00,Wunderground v.1.15,2013-06-15 02:32:00,
2013-06-14 22:34:00,60.0,54.8,29.69,SE,143,0.0,0.0,83,0.00,,,0.00,Wunderground v.1.15,2013-06-15 02:34:00,
2013-06-14 22:35:00,60.0,54.8,29.69,SE,143,0.0,0.0,83,0.00,,,0.00,Wunderground v.1.15,2013-06-15 02:35:00,
2013-06-14 22:37:00,59.9,54.7,29.69,SE,143,0.0,0.0,83,0.00,,,0.00,Wunderground v.1.15,2013-06-15 02:37:00,
2013-06-14 22:41:00,59.8,54.3,29.69,SE,143,0.0,0.0,82,0.00,,,0.00,Wunderground v.1.15,2013-06-15 02:41:00,
2013-06-14 22:43:00,59.8,54.6,29.69,SE,143,0.0,0.0,83,0.00,,,0.00,Wunderground v.1.15,2013-06-15 02:43:00,
2013-06-14 22:44:00,59.7,54.5,29.69,SE,143,0.0,0.0,83,0.00,,,0.00,Wunderground v.1.15,2013-06-15 02:44:00,
2013-06-14 22:45:00,59.7,54.5,29.69,SE,143,0.0,0.0,83,0.00,,,0.00,Wunderground v.1.15,2013-06-15 02:45:00,
2013-06-14 22:49:00,59.7,55.2,29.69,SE,143,0.0,0.0,85,0.00,,,0.00,Wunderground v.1.15,2013-06-15 02:49:00,
2013-06-14 22:50:00,59.7,55.5,29.69,SE,143,0.0,0.0,86,0.00,,,0.00,Wunderground v.1.15,2013-06-15 02:50:00,
2013-06-14 22:53:00,59.6,55.4,29.69,SE,143,0.0,0.0,86,0.00,,,0.00,Wunderground v.1.15,2013-06-15 02:53:00,
2013-06-14 22:55:00,59.6,55.4,29.70,SE,143,0.0,0.0,86,0.00,,,0.00,Wunderground v.1.15,2013-06-15 02:55:00,
2013-06-14 22:56:00,59.5,55.3,29.70,SE,143,0.0,0.0,86,0.00,,,0.00,Wunderground v.1.15,2013-06-15 02:56:00,
2013-06-14 22:58:00,59.5,55.6,29.69,SE,143,0.0,0.0,87,0.00,,,0.00,Wunderground v.1.15,2013-06-15 02:58:00,
2013-06-14 23:02:00,59.3,55.4,29.70,SE,143,0.0,0.0,87,0.00,,,0.00,Wunderground v.1.15,2013-06-15 03:02:00,
2013-06-14 23:03:00,59.3,55.4,29.70,SE,143,0.0,0.0,87,0.00,,,0.00,Wunderground v.1.15,2013-06-15 03:03:00,
2013-06-14 23:05:00,59.2,55.6,29.70,SE,143,0.0,0.0,88,0.00,,,0.00,Wunderground v.1.15,2013-06-15 03:05:00,
2013-06-14 23:08:00,59.1,55.5,29.70,SE,143,0.0,0.0,88,0.00,,,0.00,Wunderground v.1.15,2013-06-15 03:08:00,
2013-06-14 23:09:00,59.0,55.4,29.70,SE,143,0.0,0.0,88,0.00,,,0.00,Wunderground v.1.15,2013-06-15 03:09:00,
2013-06-14 23:13:00,58.8,55.3,29.70,SE,143,0.0,0.0,88,0.00,,,0.00,Wunderground v.1.15,2013-06-15 03:13:00,
2013-06-14 23:14:00,58.7,55.5,29.70,SE,143,0.0,0.0,89,0.00,,,0.00,Wunderground v.1.15,2013-06-15 03:14:00,
2013-06-14 23:16:00,58.6,55.4,29.70,SE,143,0.0,0.0,89,0.00,,,0.00,Wunderground v.1.15,2013-06-15 03:16:00,
2013-06-14 23:19:00,58.4,55.2,29.70,SE,143,0.0,0.0,89,0.00,,,0.00,Wunderground v.1.15,2013-06-15 03:19:00,
2013-06-14 23:20:00,58.4,55.2,29.70,SE,143,0.0,0.0,89,0.00,,,0.00,Wunderground v.1.15,2013-06-15 03:20:00,
2013-06-14 23:21:00,58.3,55.1,29.70,SE,143,0.0,0.0,89,0.00,,,0.00,Wunderground v.1.15,2013-06-15 03:21:00,
2013-06-14 23:24:00,58.0,54.8,29.70,SE,143,0.0,0.0,89,0.00,,,0.00,Wunderground v.1.15,2013-06-15 03:24:00,
2013-06-14 23:25:00,58.0,54.8,29.70,SE,143,0.0,0.0,89,0.00,,,0.00,Wunderground v.1.15,2013-06-15 03:25:00,
2013-06-14 23:26:00,57.8,54.6,29.70,SE,143,0.0,0.0,89,0.00,,,0.00,Wunderground v.1.15,2013-06-15 03:26:00,
2013-06-14 23:27:00,57.8,54.3,29.70,SE,143,0.0,0.0,88,0.00,,,0.00,Wunderground v.1.15,2013-06-15 03:27:00,
2013-06-14 23:28:00,57.7,54.2,29.70,SE,143,0.0,0.0,88,0.00,,,0.00,Wunderground v.1.15,2013-06-15 03:28:00,
2013-06-14 23:31:00,57.6,54.1,29.70,SE,143,0.0,0.0,88,0.00,,,0.00,Wunderground v.1.15,2013-06-15 03:31:00,
2013-06-14 23:32:00,57.5,54.0,29.71,SE,143,0.0,0.0,88,0.00,,,0.00,Wunderground v.1.15,2013-06-15 03:32:00,
2013-06-14 23:33:00,57.5,54.3,29.71,SE,143,0.0,0.0,89,0.00,,,0.00,Wunderground v.1.15,2013-06-15 03:33:00,
2013-06-14 23:37:00,57.5,54.0,29.71,SE,143,0.0,0.0,88,0.00,,,0.00,Wunderground v.1.15,2013-06-15 03:37:00,
2013-06-14 23:38:00,57.4,53.9,29.71,SE,143,0.0,0.0,88,0.00,,,0.00,Wunderground v.1.15,2013-06-15 03:38:00,
2013-06-14 23:44:00,57.3,54.1,29.71,SE,143,0.0,0.0,89,0.00,,,0.00,Wunderground v.1.15,2013-06-15 03:44:00,
2013-06-14 23:48:00,57.1,53.9,29.71,SE,143,0.0,0.0,89,0.00,,,0.00,Wunderground v.1.15,2013-06-15 03:48:00,
2013-06-14 23:49:00,57.1,53.9,29.71,SE,143,0.0,0.0,89,0.00,,,0.00,Wunderground v.1.15,2013-06-15 03:49:00,
2013-06-14 23:50:00,57.1,53.9,29.71,SE,143,0.0,0.0,89,0.00,,,0.00,Wunderground v.1.15,2013-06-15 03:50:00,
2013-06-14 23:52:00,57.0,53.8,29.71,SE,143,0.0,0.0,89,0.00,,,0.00,Wunderground v.1.15,2013-06-15 03:52:00,
2013-06-14 23:54:00,56.9,53.7,29.71,SE,143,0.0,0.0,89,0.00,,,0.00,Wunderground v.1.15,2013-06-15 03:54:00,
2013-06-14 23:57:00,56.9,53.7,29.71,SE,143,0.0,0.0,89,0.00,,,0.00,Wunderground v.1.15,2013-06-15 03:57:00,
2013-06-14 23:58:00,56.9,53.7,29.71,SE,143,0.0,0.0,89,0.00,,,0.00,Wunderground v.1.15,2013-06-15 03:58:00,